GW4803 Weather Reports


Display with metric or nautical units.
time (UTC)temp
F
wind
direction
speed
MPH
gust
MPH
rain 1hr
in
rain 24hr
in
rain mn
in
humidity
%
barometer
mb
20260906212204 99 120 10.0 17.0 0.00 0.00 0.00 32 1016.1
20260906212102 99 105 9.0 17.0 0.00 0.00 0.00 32 1016.2
20260906212003 99 115 12.0 17.0 0.00 0.00 0.00 32 1016.1
20260906211906 99 129 12.0 17.0 0.00 0.00 0.00 32 1016.2
20260906211802 99 135 11.0 17.0 0.00 0.00 0.00 32 1016.2
20260906211700 99 98 12.0 17.0 0.00 0.00 0.00 32 1016.2
20260906211504 99 112 11.0 17.0 0.00 0.00 0.00 32 1016.3
20260906211304 99 121 8.0 17.0 0.00 0.00 0.00 32 1016.3
20260906211202 98 118 13.0 17.0 0.00 0.00 0.00 33 1016.4
20260906211104 98 134 13.0 17.0 0.00 0.00 0.00 33 1016.4
20260906211003 98 128 11.0 13.0 0.00 0.00 0.00 33 1016.4
20260906210901 98 135 7.0 13.0 0.00 0.00 0.00 34 1016.4
20260906210702 97 123 7.0 15.0 0.00 0.00 0.00 34 1016.5
20260906210603 97 117 7.0 15.0 0.00 0.00 0.00 34 1016.5
20260906210504 97 132 1.0 15.0 0.00 0.00 0.00 33 1016.5
20260906210402 97 132 5.0 15.0 0.00 0.00 0.00 33 1016.5
20260906210301 97 143 8.0 15.0 0.00 0.00 0.00 33 1016.5
20260906210202 97 124 12.0 15.0 0.00 0.00 0.00 33 1016.6
20260906210103 97 120 8.0 15.0 0.00 0.00 0.00 33 1016.6
20260906210001 97 151 8.0 15.0 0.00 0.00 0.00 33 1016.6
20260906205903 97 142 14.0 16.0 0.00 0.00 0.00 34 1016.6
20260906205803 97 149 11.0 16.0 0.00 0.00 0.00 34 1016.6
20260906205702 97 141 5.0 17.0 0.00 0.00 0.00 34 1016.7
20260906205501 97 139 10.0 17.0 0.00 0.00 0.00 34 1016.7
20260906205401 98 121 9.0 17.0 0.00 0.00 0.00 34 1016.7
20260906205259 98 134 9.0 17.0 0.00 0.00 0.00 34 1016.8
20260906205201 98 128 10.0 17.0 0.00 0.00 0.00 34 1016.8
20260906205101 98 140 9.0 17.0 0.00 0.00 0.00 33 1016.8
20260906205003 98 146 8.0 17.0 0.00 0.00 0.00 33 1016.8
20260906204902 98 146 12.0 17.0 0.00 0.00 0.00 33 1016.8
20260906204801 98 142 14.0 17.0 0.00 0.00 0.00 33 1016.8
20260906204701 98 136 8.0 17.0 0.00 0.00 0.00 33 1016.9
20260906204603 98 134 5.0 17.0 0.00 0.00 0.00 33 1016.8
20260906204505 98 140 13.0 16.0 0.00 0.00 0.00 33 1016.8
20260906204402 98 154 6.0 12.0 0.00 0.00 0.00 33 1016.8
20260906204303 98 145 5.0 12.0 0.00 0.00 0.00 33 1016.8
20260906204202 98 146 6.0 12.0 0.00 0.00 0.00 33 1016.9
20260906204100 98 140 10.0 12.0 0.00 0.00 0.00 33 1016.9
20260906204001 98 140 10.0 12.0 0.00 0.00 0.00 33 1016.9
20260906203901 98 161 8.0 14.0 0.00 0.00 0.00 32 1017.0
20260906203802 98 148 10.0 14.0 0.00 0.00 0.00 32 1016.9
20260906203702 98 130 11.0 14.0 0.00 0.00 0.00 32 1016.9
20260906203601 98 142 11.0 16.0 0.00 0.00 0.00 33 1017.0
20260906203502 98 164 7.0 16.0 0.00 0.00 0.00 33 1017.0
20260906203401 98 158 6.0 19.0 0.00 0.00 0.00 33 1016.9
20260906203300 98 144 1.0 19.0 0.00 0.00 0.00 33 1016.9
20260906203201 98 145 3.0 19.0 0.00 0.00 0.00 33 1017.0
20260906203002 98 136 7.0 19.0 0.00 0.00 0.00 33 1017.0
20260906202901 98 114 8.0 19.0 0.00 0.00 0.00 33 1017.0
20260906202801 99 139 12.0 19.0 0.00 0.00 0.00 33 1017.0
20260906202502 99 122 11.0 15.0 0.00 0.00 0.00 33 1016.9
20260906202402 99 121 12.0 17.0 0.00 0.00 0.00 33 1016.9
20260906202306 99 113 15.0 17.0 0.00 0.00 0.00 33 1016.9
20260906202203 98 113 7.0 20.0 0.00 0.00 0.00 33 1016.9
20260906202103 98 119 7.0 20.0 0.00 0.00 0.00 33 1016.9
20260906202001 99 150 3.0 20.0 0.00 0.00 0.00 33 1017.0
20260906201902 99 150 4.0 20.0 0.00 0.00 0.00 33 1017.0
20260906201802 99 139 4.0 20.0 0.00 0.00 0.00 33 1017.1
20260906201702 99 130 4.0 20.0 0.00 0.00 0.00 33 1017.1
20260906201601 99 109 8.0 20.0 0.00 0.00 0.00 33 1017.1
20260906201501 99 128 10.0 20.0 0.00 0.00 0.00 33 1017.1
20260906201201 99 126 12.0 16.0 0.00 0.00 0.00 32 1017.1
20260906201100 99 128 10.0 16.0 0.00 0.00 0.00 32 1017.1
20260906201001 99 181 6.0 16.0 0.00 0.00 0.00 32 1017.1
20260906200901 99 165 5.0 16.0 0.00 0.00 0.00 32 1017.1
20260906200703 99 118 11.0 18.0 0.00 0.00 0.00 33 1017.0
20260906200602 99 124 7.0 18.0 0.00 0.00 0.00 32 1017.1
20260906200501 99 113 4.0 18.0 0.00 0.00 0.00 32 1017.1
20260906200321 99 136 7.0 18.0 0.00 0.00 0.00 33 1017.1
20260906200209 99 111 6.0 18.0 0.00 0.00 0.00 33 1017.2
20260906200132 99 119 9.0 18.0 0.00 0.00 0.00 33 1017.2
20260906200035 99 122 10.0 18.0 0.00 0.00 0.00 33 1017.3
20260906195904 99 119 11.0 18.0 0.00 0.00 0.00 33 1017.3
20260906195802 99 140 18.0 18.0 0.00 0.00 0.00 33 1017.3
20260906195704 99 137 12.0 18.0 0.00 0.00 0.00 33 1017.2
20260906195602 99 146 13.0 18.0 0.00 0.00 0.00 33 1017.3
20260906195502 99 148 10.0 18.0 0.00 0.00 0.00 33 1017.3
20260906195402 99 138 16.0 19.0 0.00 0.00 0.00 33 1017.3
20260906195306 99 142 12.0 19.0 0.00 0.00 0.00 34 1017.3
20260906195203 99 123 7.0 19.0 0.00 0.00 0.00 34 1017.3
20260906195103 98 127 11.0 19.0 0.00 0.00 0.00 34 1017.4
20260906195002 98 109 7.0 19.0 0.00 0.00 0.00 34 1017.3
20260906194900 98 96 10.0 19.0 0.00 0.00 0.00 34 1017.3
20260906194803 98 118 7.0 19.0 0.00 0.00 0.00 34 1017.4
20260906194702 98 132 4.0 19.0 0.00 0.00 0.00 34 1017.4
20260906194603 98 130 10.0 19.0 0.00 0.00 0.00 34 1017.3
20260906194404 99 123 10.0 17.0 0.00 0.00 0.00 33 1017.5
20260906194302 99 136 11.0 17.0 0.00 0.00 0.00 33 1017.5
20260906194202 99 117 13.0 13.0 0.00 0.00 0.00 33 1017.5
20260906194102 99 188 3.0 12.0 0.00 0.00 0.00 33 1017.5
20260906194002 99 198 4.0 12.0 0.00 0.00 0.00 33 1017.5
20260906193802 99 134 4.0 12.0 0.00 0.00 0.00 32 1017.6
20260906193703 100 144 5.0 12.0 0.00 0.00 0.00 33 1017.6
20260906193602 99 157 5.0 12.0 0.00 0.00 0.00 33 1017.6
20260906193402 99 169 10.0 11.0 0.00 0.00 0.00 33 1017.5
20260906193303 99 180 11.0 13.0 0.00 0.00 0.00 33 1017.5
20260906193203 99 113 12.0 13.0 0.00 0.00 0.00 33 1017.6
20260906193103 99 161 13.0 14.0 0.00 0.00 0.00 33 1017.6
20260906193003 99 152 8.0 14.0 0.00 0.00 0.00 33 1017.6
20260906192901 99 137 7.0 15.0 0.00 0.00 0.00 34 1017.6
20260906192801 99 83 2.0 17.0 0.00 0.00 0.00 34 1017.6
20260906192701 99 79 3.0 18.0 0.00 0.00 0.00 33 1017.6
20260906192601 99 100 7.0 18.0 0.00 0.00 0.00 33 1017.7
20260906192503 99 138 7.0 18.0 0.00 0.00 0.00 33 1017.7
20260906192402 99 119 9.0 18.0 0.00 0.00 0.00 33 1017.7
20260906192301 99 118 8.0 18.0 0.00 0.00 0.00 33 1017.7
20260906192202 99 152 5.0 18.0 0.00 0.00 0.00 33 1017.8
20260906192004 99 132 12.0 18.0 0.00 0.00 0.00 33 1017.8
20260906191901 100 117 18.0 18.0 0.00 0.00 0.00 32 1017.7
20260906191704 100 139 12.0 16.0 0.00 0.00 0.00 32 1017.7
20260906191502 99 194 7.0 16.0 0.00 0.00 0.00 32 1017.7
20260906191403 99 138 12.0 16.0 0.00 0.00 0.00 32 1017.7
20260906191303 99 141 11.0 16.0 0.00 0.00 0.00 33 1017.8
20260906191204 99 207 8.0 16.0 0.00 0.00 0.00 33 1017.7
20260906191004 99 207 4.0 16.0 0.00 0.00 0.00 33 1017.8
20260906190903 99 223 5.0 16.0 0.00 0.00 0.00 33 1017.7
20260906190702 99 175 13.0 17.0 0.00 0.00 0.00 33 1017.8
20260906190603 99 198 10.0 16.0 0.00 0.00 0.00 34 1017.8
20260906190501 98 192 6.0 14.0 0.00 0.00 0.00 34 1017.8
20260906190203 98 216 10.0 12.0 0.00 0.00 0.00 34 1017.9
20260906190006 98 184 3.0 15.0 0.00 0.00 0.00 34 1017.9
20260906185902 98 214 4.0 15.0 0.00 0.00 0.00 34 1017.9
20260906185801 98 196 3.0 15.0 0.00 0.00 0.00 34 1017.9
20260906185702 98 219 3.0 18.0 0.00 0.00 0.00 34 1017.9
20260906185602 98 175 3.0 18.0 0.00 0.00 0.00 34 1018.0
20260906185502 98 166 4.0 18.0 0.00 0.00 0.00 34 1018.0
20260906185402 99 140 10.0 18.0 0.00 0.00 0.00 34 1018.0
20260906185306 99 132 11.0 18.0 0.00 0.00 0.00 34 1018.0
20260906185204 99 163 11.0 18.0 0.00 0.00 0.00 34 1018.0
20260906185103 98 153 10.0 18.0 0.00 0.00 0.00 34 1018.0
20260906185003 98 188 6.0 18.0 0.00 0.00 0.00 34 1018.1
20260906184902 98 141 8.0 18.0 0.00 0.00 0.00 34 1018.0
20260906184803 98 143 12.0 18.0 0.00 0.00 0.00 35 1018.0
20260906184603 97 142 11.0 14.0 0.00 0.00 0.00 34 1018.1
20260906184503 97 114 10.0 14.0 0.00 0.00 0.00 35 1018.1
20260906184202 97 123 8.0 13.0 0.00 0.00 0.00 34 1018.1
20260906184102 97 128 11.0 13.0 0.00 0.00 0.00 34 1018.1
20260906184002 97 126 10.0 13.0 0.00 0.00 0.00 35 1018.2
20260906183902 97 153 3.0 9.0 0.00 0.00 0.00 35 1018.1
20260906183802 97 152 4.0 9.0 0.00 0.00 0.00 35 1018.2
20260906183702 97 157 8.0 10.0 0.00 0.00 0.00 35 1018.2
20260906183602 97 200 5.0 11.0 0.00 0.00 0.00 35 1018.2
20260906183502 97 203 1.0 14.0 0.00 0.00 0.00 34 1018.2
20260906183402 97 203 1.0 16.0 0.00 0.00 0.00 34 1018.3
20260906183003 98 195 3.0 16.0 0.00 0.00 0.00 34 1018.3
20260906182901 98 190 8.0 16.0 0.00 0.00 0.00 34 1018.4
20260906182801 98 166 7.0 16.0 0.00 0.00 0.00 34 1018.4
20260906182702 99 144 8.0 16.0 0.00 0.00 0.00 34 1018.4
20260906182603 99 138 10.0 17.0 0.00 0.00 0.00 34 1018.3
20260906182404 98 154 8.0 14.0 0.00 0.00 0.00 34 1018.4
20260906182305 98 155 12.0 14.0 0.00 0.00 0.00 34 1018.4
20260906182203 98 148 5.0 14.0 0.00 0.00 0.00 35 1018.4
20260906182103 98 168 10.0 12.0 0.00 0.00 0.00 34 1018.4
20260906182002 98 211 9.0 11.0 0.00 0.00 0.00 35 1018.4
20260906181902 98 189 5.0 11.0 0.00 0.00 0.00 34 1018.4
20260906181804 98 146 5.0 11.0 0.00 0.00 0.00 34 1018.4
20260906181502 98 194 2.0 15.0 0.00 0.00 0.00 35 1018.5
20260906181402 98 216 6.0 15.0 0.00 0.00 0.00 35 1018.5
20260906181301 98 142 3.0 15.0 0.00 0.00 0.00 35 1018.6
20260906181202 98 142 5.0 15.0 0.00 0.00 0.00 35 1018.6
20260906181103 98 141 5.0 15.0 0.00 0.00 0.00 35 1018.6
20260906181002 97 183 5.0 15.0 0.00 0.00 0.00 35 1018.6
20260906180904 97 164 6.0 15.0 0.00 0.00 0.00 36 1018.6
20260906180802 97 151 8.0 12.0 0.00 0.00 0.00 35 1018.6
20260906180703 97 140 5.0 12.0 0.00 0.00 0.00 35 1018.6
20260906180604 97 105 10.0 15.0 0.00 0.00 0.00 35 1018.7
20260906180504 97 131 9.0 15.0 0.00 0.00 0.00 36 1018.7
20260906180302 97 120 7.0 15.0 0.00 0.00 0.00 36 1018.7
20260906180201 97 128 7.0 15.0 0.00 0.00 0.00 36 1018.6
20260906180005 97 76 4.0 15.0 0.00 0.00 0.00 36 1018.7
20260906175903 97 97 4.0 17.0 0.00 0.00 0.00 35 1018.7
20260906175802 97 126 10.0 18.0 0.00 0.00 0.00 35 1018.8
20260906175704 97 154 7.0 18.0 0.00 0.00 0.00 35 1018.8
20260906175603 97 189 10.0 18.0 0.00 0.00 0.00 36 1018.8
20260906175503 97 185 10.0 18.0 0.00 0.00 0.00 35 1018.8
20260906175402 97 167 11.0 18.0 0.00 0.00 0.00 36 1018.8
20260906175203 97 186 9.0 18.0 0.00 0.00 0.00 36 1018.8
20260906175104 97 167 19.0 19.0 0.00 0.00 0.00 36 1018.9
20260906175001 96 164 7.0 18.0 0.00 0.00 0.00 36 1018.9
20260906174909 96 137 17.0 18.0 0.00 0.00 0.00 36 1018.9
20260906174802 96 141 16.0 18.0 0.00 0.00 0.00 37 1018.9
20260906174702 96 140 13.0 16.0 0.00 0.00 0.00 37 1018.9
20260906174502 96 98 7.0 16.0 0.00 0.00 0.00 37 1019.0
20260906174302 96 100 3.0 16.0 0.00 0.00 0.00 37 1019.0
20260906174203 96 98 2.0 16.0 0.00 0.00 0.00 36 1019.1
20260906174102 96 146 9.0 16.0 0.00 0.00 0.00 37 1019.2
20260906174002 96 140 11.0 16.0 0.00 0.00 0.00 37 1019.2
20260906173802 96 248 3.0 10.0 0.00 0.00 0.00 37 1019.1
20260906173703 96 225 5.0 15.0 0.00 0.00 0.00 37 1019.2
20260906173602 96 202 5.0 15.0 0.00 0.00 0.00 37 1019.2
20260906173402 96 163 8.0 15.0 0.00 0.00 0.00 37 1019.2
20260906173102 96 212 5.0 15.0 0.00 0.00 0.00 36 1019.3
20260906173002 96 157 8.0 15.0 0.00 0.00 0.00 36 1019.4
20260906172902 97 161 9.0 15.0 0.00 0.00 0.00 36 1019.3
20260906172803 97 159 12.0 15.0 0.00 0.00 0.00 36 1019.4
20260906172702 97 149 13.0 14.0 0.00 0.00 0.00 37 1019.4
20260906172601 96 195 3.0 14.0 0.00 0.00 0.00 37 1019.3
20260906172502 96 196 3.0 15.0 0.00 0.00 0.00 37 1019.2
20260906172402 96 196 2.0 15.0 0.00 0.00 0.00 37 1019.3
20260906172305 96 194 4.0 15.0 0.00 0.00 0.00 37 1019.3
20260906172202 96 200 4.0 15.0 0.00 0.00 0.00 36 1019.3
20260906172102 96 209 7.0 15.0 0.00 0.00 0.00 36 1019.4
20260906172002 96 155 8.0 15.0 0.00 0.00 0.00 36 1019.4
20260906171903 97 159 13.0 15.0 0.00 0.00 0.00 36 1019.4
20260906171803 96 163 10.0 15.0 0.00 0.00 0.00 37 1019.4
20260906171703 96 155 11.0 15.0 0.00 0.00 0.00 37 1019.3
20260906171603 96 205 7.0 12.0 0.00 0.00 0.00 37 1019.4
20260906171504 96 190 11.0 15.0 0.00 0.00 0.00 37 1019.4
20260906171405 96 189 9.0 14.0 0.00 0.00 0.00 37 1019.4
20260906171302 96 168 6.0 12.0 0.00 0.00 0.00 37 1019.5
20260906171203 96 154 6.0 12.0 0.00 0.00 0.00 37 1019.5
20260906171102 96 190 11.0 14.0 0.00 0.00 0.00 37 1019.4
20260906171002 96 150 9.0 12.0 0.00 0.00 0.00 38 1019.5
20260906170902 95 134 7.0 8.0 0.00 0.00 0.00 38 1019.5
20260906170802 95 142 3.0 9.0 0.00 0.00 0.00 38 1019.5
20260906170702 95 142 4.0 16.0 0.00 0.00 0.00 38 1019.5
20260906170602 95 118 1.0 16.0 0.00 0.00 0.00 38 1019.5
20260906170502 95 118 1.0 16.0 0.00 0.00 0.00 38 1019.5
20260906170402 95 118 2.0 16.0 0.00 0.00 0.00 38 1019.5
20260906170302 95 118 2.0 16.0 0.00 0.00 0.00 38 1019.5
20260906170202 95 117 2.0 16.0 0.00 0.00 0.00 38 1019.6
20260906170004 95 117 4.0 16.0 0.00 0.00 0.00 37 1019.7
20260906165803 96 121 7.0 14.0 0.00 0.00 0.00 37 1019.6
20260906165703 96 169 10.0 14.0 0.00 0.00 0.00 37 1019.7
20260906165603 96 183 10.0 14.0 0.00 0.00 0.00 37 1019.7
20260906165505 96 166 9.0 14.0 0.00 0.00 0.00 37 1019.7
20260906165403 96 192 9.0 14.0 0.00 0.00 0.00 38 1019.7
20260906165306 95 198 9.0 15.0 0.00 0.00 0.00 38 1019.7
20260906165203 95 193 13.0 14.0 0.00 0.00 0.00 38 1019.6
20260906165103 95 152 10.0 14.0 0.00 0.00 0.00 38 1019.7
20260906164901 95 182 9.0 14.0 0.00 0.00 0.00 39 1019.7
20260906164803 95 200 8.0 14.0 0.00 0.00 0.00 39 1019.7
20260906164702 95 155 2.0 12.0 0.00 0.00 0.00 39 1019.7
20260906164601 95 155 0.0 12.0 0.00 0.00 0.00 38 1019.7
20260906164502 95 155 3.0 12.0 0.00 0.00 0.00 38 1019.8
20260906164402 95 144 3.0 12.0 0.00 0.00 0.00 38 1019.8
20260906164303 95 195 3.0 12.0 0.00 0.00 0.00 38 1019.8
20260906164202 95 209 7.0 13.0 0.00 0.00 0.00 38 1019.8
20260906164103 95 210 2.0 11.0 0.00 0.00 0.00 38 1019.9
20260906164003 95 210 2.0 11.0 0.00 0.00 0.00 38 1019.8
20260906163901 95 198 7.0 12.0 0.00 0.00 0.00 38 1019.8
20260906163803 95 203 6.0 12.0 0.00 0.00 0.00 39 1019.8
20260906163702 95 267 4.0 12.0 0.00 0.00 0.00 39 1019.8
20260906163603 95 255 2.0 12.0 0.00 0.00 0.00 39 1019.8
20260906163402 95 257 4.0 12.0 0.00 0.00 0.00 38 1019.8
20260906163203 95 229 5.0 14.0 0.00 0.00 0.00 38 1019.8
20260906163102 95 215 10.0 14.0 0.00 0.00 0.00 38 1019.9
20260906163004 95 183 5.0 14.0 0.00 0.00 0.00 38 1019.9
20260906162802 95 174 8.0 14.0 0.00 0.00 0.00 38 1019.8
20260906162504 95 201 8.0 14.0 0.00 0.00 0.00 38 1019.8
20260906162401 95 186 9.0 13.0 0.00 0.00 0.00 39 1019.9
20260906162305 95 198 5.0 8.0 0.00 0.00 0.00 38 1019.9
20260906162101 95 167 8.0 11.0 0.00 0.00 0.00 39 1019.9
20260906162003 95 171 2.0 11.0 0.00 0.00 0.00 38 1019.9
20260906161904 95 172 2.0 11.0 0.00 0.00 0.00 39 1019.9
20260906161802 95 174 7.0 11.0 0.00 0.00 0.00 39 1019.9
20260906161600 94 197 2.0 11.0 0.00 0.00 0.00 38 1019.8
20260906161503 95 205 5.0 11.0 0.00 0.00 0.00 38 1019.8
20260906161402 95 212 6.0 11.0 0.00 0.00 0.00 39 1019.8
20260906161301 95 184 4.0 10.0 0.00 0.00 0.00 39 1019.8
20260906161204 95 178 6.0 10.0 0.00 0.00 0.00 39 1019.8
20260906161002 94 213 9.0 11.0 0.00 0.00 0.00 39 1019.8
20260906160903 94 196 6.0 10.0 0.00 0.00 0.00 39 1019.8
20260906160801 94 214 5.0 9.0 0.00 0.00 0.00 39 1019.8
20260906160701 94 253 3.0 9.0 0.00 0.00 0.00 39 1019.8
20260906160601 94 271 7.0 9.0 0.00 0.00 0.00 39 1019.8
20260906160501 94 277 1.0 9.0 0.00 0.00 0.00 39 1019.8
20260906160402 94 246 3.0 9.0 0.00 0.00 0.00 39 1019.8
20260906160301 94 220 8.0 9.0 0.00 0.00 0.00 39 1019.8
20260906160201 94 187 6.0 10.0 0.00 0.00 0.00 39 1019.7
20260906160004 94 134 7.0 8.0 0.00 0.00 0.00 39 1019.7
20260906155903 94 130 5.0 8.0 0.00 0.00 0.00 39 1019.9
20260906155703 94 144 4.0 8.0 0.00 0.00 0.00 39 1019.9
20260906155603 94 161 4.0 8.0 0.00 0.00 0.00 39 1019.8
20260906155504 94 160 2.0 8.0 0.00 0.00 0.00 39 1019.9
20260906155402 94 165 9.0 9.0 0.00 0.00 0.00 40 1019.9
20260906155306 94 266 4.0 8.0 0.00 0.00 0.00 40 1019.8
20260906155002 94 280 3.0 8.0 0.00 0.00 0.00 40 1019.8
20260906154902 94 232 5.0 10.0 0.00 0.00 0.00 40 1019.8
20260906154803 94 234 4.0 10.0 0.00 0.00 0.00 40 1019.8
20260906154703 94 219 4.0 10.0 0.00 0.00 0.00 40 1019.8
20260906154602 94 254 4.0 10.0 0.00 0.00 0.00 40 1019.7
20260906154502 94 255 1.0 10.0 0.00 0.00 0.00 40 1019.8
20260906154403 94 263 3.0 10.0 0.00 0.00 0.00 40 1019.8
20260906154302 94 151 1.0 10.0 0.00 0.00 0.00 39 1019.8
20260906154203 94 178 6.0 10.0 0.00 0.00 0.00 40 1019.8
20260906154002 94 245 5.0 9.0 0.00 0.00 0.00 40 1019.7
20260906153902 94 184 2.0 9.0 0.00 0.00 0.00 39 1019.7
20260906153806 94 186 3.0 9.0 0.00 0.00 0.00 39 1019.8
20260906153703 94 137 1.0 9.0 0.00 0.00 0.00 39 1019.8
20260906153603 94 144 8.0 9.0 0.00 0.00 0.00 39 1019.8
20260906153503 94 180 5.0 9.0 0.00 0.00 0.00 39 1019.8
20260906153403 94 198 3.0 9.0 0.00 0.00 0.00 39 1019.7
20260906153305 94 171 6.0 9.0 0.00 0.00 0.00 39 1019.7
20260906153203 94 194 7.0 10.0 0.00 0.00 0.00 39 1019.7
20260906153003 94 244 0.0 10.0 0.00 0.00 0.00 39 1019.7
20260906152903 94 244 1.0 10.0 0.00 0.00 0.00 39 1019.7
20260906152802 94 247 2.0 10.0 0.00 0.00 0.00 39 1019.7
20260906152704 94 195 3.0 10.0 0.00 0.00 0.00 40 1019.7
20260906152602 94 207 4.0 10.0 0.00 0.00 0.00 40 1019.7
20260906152503 94 263 10.0 10.0 0.00 0.00 0.00 40 1019.7
20260906152403 94 194 4.0 10.0 0.00 0.00 0.00 40 1019.6
20260906152306 94 237 0.0 10.0 0.00 0.00 0.00 40 1019.6
20260906152104 93 242 3.0 10.0 0.00 0.00 0.00 41 1019.6
20260906152003 93 254 3.0 10.0 0.00 0.00 0.00 41 1019.6
20260906151803 93 272 4.0 9.0 0.00 0.00 0.00 42 1019.6
20260906151703 93 275 2.0 9.0 0.00 0.00 0.00 41 1019.6
20260906151504 93 201 3.0 8.0 0.00 0.00 0.00 42 1019.5
20260906151401 92 195 0.0 8.0 0.00 0.00 0.00 42 1019.6
20260906151305 92 195 1.0 8.0 0.00 0.00 0.00 42 1019.5
20260906151203 92 198 4.0 8.0 0.00 0.00 0.00 42 1019.5
20260906151103 92 243 4.0 8.0 0.00 0.00 0.00 42 1019.5
20260906150904 92 233 3.0 8.0 0.00 0.00 0.00 43 1019.5
20260906150801 92 184 5.0 8.0 0.00 0.00 0.00 43 1019.5
20260906150703 92 195 5.0 8.0 0.00 0.00 0.00 44 1019.5
20260906150504 92 182 1.0 8.0 0.00 0.00 0.00 44 1019.5
20260906150404 92 182 0.0 8.0 0.00 0.00 0.00 43 1019.5
20260906150203 91 176 0.0 8.0 0.00 0.00 0.00 44 1019.5
20260906150006 91 200 2.0 8.0 0.00 0.00 0.00 44 1019.5
20260906145902 91 167 8.0 9.0 0.00 0.00 0.00 44 1019.5
20260906145802 91 187 0.0 7.0 0.00 0.00 0.00 44 1019.5
20260906145701 91 188 7.0 10.0 0.00 0.00 0.00 45 1019.5
20260906145602 91 169 2.0 10.0 0.00 0.00 0.00 45 1019.5
20260906145502 91 169 2.0 10.0 0.00 0.00 0.00 45 1019.5
20260906145302 91 167 5.0 10.0 0.00 0.00 0.00 45 1019.5
20260906145203 90 184 0.0 10.0 0.00 0.00 0.00 46 1019.5
20260906145102 90 184 1.0 10.0 0.00 0.00 0.00 46 1019.5
20260906145003 90 184 3.0 10.0 0.00 0.00 0.00 46 1019.5
20260906144902 90 163 5.0 10.0 0.00 0.00 0.00 46 1019.5
20260906144801 90 147 10.0 10.0 0.00 0.00 0.00 46 1019.5
20260906144713 90 160 7.0 7.0 0.00 0.00 0.00 47 1019.6
20260906144601 90 186 4.0 7.0 0.00 0.00 0.00 47 1019.6
20260906144501 90 177 6.0 7.0 0.00 0.00 0.00 46 1019.5
20260906144401 90 184 3.0 7.0 0.00 0.00 0.00 47 1019.6
20260906144303 90 201 5.0 7.0 0.00 0.00 0.00 47 1019.6
20260906144202 89 190 4.0 7.0 0.00 0.00 0.00 47 1019.6
20260906144103 89 184 7.0 8.0 0.00 0.00 0.00 48 1019.6
20260906144003 89 165 6.0 8.0 0.00 0.00 0.00 48 1019.6
20260906143802 89 177 4.0 8.0 0.00 0.00 0.00 48 1019.7
20260906143701 89 172 5.0 8.0 0.00 0.00 0.00 49 1019.6
20260906143501 88 148 3.0 9.0 0.00 0.00 0.00 49 1019.6
20260906143401 88 150 4.0 10.0 0.00 0.00 0.00 49 1019.6
20260906143303 88 153 4.0 10.0 0.00 0.00 0.00 50 1019.6
20260906143102 88 152 3.0 10.0 0.00 0.00 0.00 50 1019.7
20260906143002 88 151 3.0 10.0 0.00 0.00 0.00 51 1019.7
20260906142901 88 153 5.0 10.0 0.00 0.00 0.00 51 1019.7
20260906142802 88 129 3.0 10.0 0.00 0.00 0.00 51 1019.7
20260906142703 88 147 8.0 10.0 0.00 0.00 0.00 51 1019.7
20260906142602 87 152 8.0 10.0 0.00 0.00 0.00 52 1019.7
20260906142502 87 148 4.0 10.0 0.00 0.00 0.00 52 1019.7
20260906142403 87 146 8.0 8.0 0.00 0.00 0.00 52 1019.6
20260906142306 87 161 5.0 8.0 0.00 0.00 0.00 52 1019.6
20260906142201 87 159 6.0 8.0 0.00 0.00 0.00 53 1019.6
20260906142101 87 147 5.0 8.0 0.00 0.00 0.00 52 1019.7
20260906142003 87 183 8.0 9.0 0.00 0.00 0.00 53 1019.6
20260906141902 86 157 8.0 9.0 0.00 0.00 0.00 53 1019.7
20260906141803 86 162 4.0 9.0 0.00 0.00 0.00 53 1019.6
20260906141702 86 161 5.0 9.0 0.00 0.00 0.00 53 1019.6
20260906141602 86 140 4.0 9.0 0.00 0.00 0.00 54 1019.6
20260906141501 86 141 5.0 9.0 0.00 0.00 0.00 54 1019.6
20260906141402 86 144 5.0 9.0 0.00 0.00 0.00 54 1019.6
20260906141301 86 153 5.0 9.0 0.00 0.00 0.00 54 1019.6
20260906141203 86 150 6.0 9.0 0.00 0.00 0.00 54 1019.6
20260906141002 85 150 5.0 9.0 0.00 0.00 0.00 55 1019.7
20260906140901 85 143 5.0 9.0 0.00 0.00 0.00 55 1019.6
20260906140602 85 144 5.0 8.0 0.00 0.00 0.00 55 1019.6
20260906140402 85 149 4.0 9.0 0.00 0.00 0.00 56 1019.6
20260906140159 84 153 3.0 9.0 0.00 0.00 0.00 56 1019.6
20260906140001 84 153 5.0 9.0 0.00 0.00 0.00 56 1019.6
20260906135901 84 156 3.0 9.0 0.00 0.00 0.00 57 1019.5
20260906135801 84 155 6.0 9.0 0.00 0.00 0.00 57 1019.5
20260906135701 84 153 3.0 9.0 0.00 0.00 0.00 57 1019.5
20260906135603 84 146 5.0 8.0 0.00 0.00 0.00 57 1019.6
20260906135501 84 156 6.0 8.0 0.00 0.00 0.00 57 1019.5
20260906135400 83 172 6.0 7.0 0.00 0.00 0.00 57 1019.5
20260906135301 83 165 6.0 7.0 0.00 0.00 0.00 58 1019.5
20260906135200 83 167 5.0 7.0 0.00 0.00 0.00 58 1019.5
20260906135100 83 164 4.0 7.0 0.00 0.00 0.00 59 1019.5
20260906135001 83 150 4.0 7.0 0.00 0.00 0.00 59 1019.5
20260906134900 83 144 3.0 7.0 0.00 0.00 0.00 59 1019.5
20260906134801 82 140 7.0 7.0 0.00 0.00 0.00 59 1019.5
20260906134603 82 139 2.0 7.0 0.00 0.00 0.00 59 1019.4
20260906134500 82 140 3.0 7.0 0.00 0.00 0.00 60 1019.4
20260906134302 82 140 3.0 7.0 0.00 0.00 0.00 60 1019.5
20260906134202 82 140 4.0 7.0 0.00 0.00 0.00 60 1019.5
20260906134101 82 139 5.0 7.0 0.00 0.00 0.00 60 1019.5
20260906134002 82 136 3.0 7.0 0.00 0.00 0.00 60 1019.4
20260906133902 81 135 3.0 7.0 0.00 0.00 0.00 60 1019.4
20260906133801 81 135 3.0 7.0 0.00 0.00 0.00 60 1019.4
20260906133601 81 136 4.0 7.0 0.00 0.00 0.00 61 1019.4
20260906133502 81 134 3.0 5.0 0.00 0.00 0.00 61 1019.4
20260906133301 81 136 4.0 5.0 0.00 0.00 0.00 61 1019.4
20260906133202 81 135 4.0 5.0 0.00 0.00 0.00 61 1019.4
20260906133102 80 135 3.0 5.0 0.00 0.00 0.00 61 1019.4
20260906132902 80 109 3.0 6.0 0.00 0.00 0.00 62 1019.3
20260906132701 80 133 3.0 5.0 0.00 0.00 0.00 62 1019.4
20260906132500 79 133 4.0 5.0 0.00 0.00 0.00 62 1019.4
20260906132401 79 136 3.0 5.0 0.00 0.00 0.00 63 1019.4
20260906132300 79 146 4.0 5.0 0.00 0.00 0.00 63 1019.4
20260906132100 79 153 3.0 5.0 0.00 0.00 0.00 64 1019.4
20260906132001 78 154 3.0 5.0 0.00 0.00 0.00 64 1019.4
20260906131801 78 157 5.0 5.0 0.00 0.00 0.00 65 1019.3
20260906131700 78 158 2.0 5.0 0.00 0.00 0.00 65 1019.4
20260906131601 78 159 0.0 0.0 0.00 0.00 0.00 66 1019.4
20260906131500 77 159 0.0 0.0 0.00 0.00 0.00 66 1019.4
20260906131401 77 159 0.0 0.0 0.00 0.00 0.00 66 1019.5
20260906131300 77 159 0.0 0.0 0.00 0.00 0.00 67 1019.4
20260906131201 77 159 0.0 0.0 0.00 0.00 0.00 67 1019.4
20260906131102 77 159 0.0 0.0 0.00 0.00 0.00 68 1019.4
20260906131001 76 159 0.0 0.0 0.00 0.00 0.00 68 1019.4
20260906130902 76 159 0.0 0.0 0.00 0.00 0.00 68 1019.4
20260906130803 76 159 0.0 0.0 0.00 0.00 0.00 68 1019.4
20260906130701 75 159 0.0 0.0 0.00 0.00 0.00 68 1019.3
20260906130600 75 159 0.0 0.0 0.00 0.00 0.00 68 1019.4
20260906130502 75 159 0.0 0.0 0.00 0.00 0.00 68 1019.4
20260906130401 75 159 0.0 0.0 0.00 0.00 0.00 68 1019.4
20260906130301 75 159 0.0 0.0 0.00 0.00 0.00 68 1019.4
20260906130202 74 159 0.0 0.0 0.00 0.00 0.00 68 1019.3
20260906130001 74 159 0.0 0.0 0.00 0.00 0.00 68 1019.2
20260906125901 74 159 0.0 0.0 0.00 0.00 0.00 68 1019.2
20260906125801 74 159 0.0 0.0 0.00 0.00 0.00 68 1019.2
20260906125702 74 159 0.0 0.0 0.00 0.00 0.00 67 1019.2
20260906125601 74 159 0.0 0.0 0.00 0.00 0.00 67 1019.2
20260906125501 74 160 0.0 0.0 0.00 0.00 0.00 67 1019.2
20260906125401 74 160 0.0 0.0 0.00 0.00 0.00 67 1019.2
20260906125306 73 160 0.0 0.0 0.00 0.00 0.00 67 1019.2
20260906125201 73 159 0.0 0.0 0.00 0.00 0.00 67 1019.2
20260906125103 73 160 0.0 0.0 0.00 0.00 0.00 67 1019.2
20260906125001 73 160 0.0 0.0 0.00 0.00 0.00 67 1019.2
20260906124902 73 160 0.0 0.0 0.00 0.00 0.00 67 1019.2
20260906124803 73 160 0.0 0.0 0.00 0.00 0.00 67 1019.2
20260906124701 73 160 0.0 0.0 0.00 0.00 0.00 67 1019.1
20260906124602 73 160 0.0 0.0 0.00 0.00 0.00 67 1019.1
20260906124501 73 160 0.0 0.0 0.00 0.00 0.00 67 1019.1
20260906124401 73 160 0.0 0.0 0.00 0.00 0.00 66 1019.1
20260906124303 73 160 0.0 0.0 0.00 0.00 0.00 66 1019.1
20260906124201 73 160 0.0 0.0 0.00 0.00 0.00 66 1019.1
20260906124001 74 160 0.0 0.0 0.00 0.00 0.00 66 1019.0
20260906123903 74 160 0.0 0.0 0.00 0.00 0.00 66 1019.0
20260906123803 74 160 0.0 0.0 0.00 0.00 0.00 66 1019.0
20260906123501 74 160 0.0 0.0 0.00 0.00 0.00 65 1018.9
20260906123401 74 160 0.0 0.0 0.00 0.00 0.00 65 1019.0
20260906123301 74 160 0.0 0.0 0.00 0.00 0.00 66 1019.0
20260906123201 74 159 0.0 0.0 0.00 0.00 0.00 66 1019.0
20260906123001 74 159 0.0 0.0 0.00 0.00 0.00 66 1019.0
20260906122904 74 159 0.0 0.0 0.00 0.00 0.00 66 1018.9
20260906122801 74 159 0.0 0.0 0.00 0.00 0.00 66 1018.9
20260906122701 75 159 0.0 0.0 0.00 0.00 0.00 67 1018.8
20260906122603 75 159 0.0 0.0 0.00 0.00 0.00 68 1018.9
20260906122501 75 159 0.0 0.0 0.00 0.00 0.00 69 1018.8
20260906122401 74 159 0.0 0.0 0.00 0.00 0.00 69 1018.8
20260906122301 74 159 0.0 0.0 0.00 0.00 0.00 69 1018.8
20260906122200 74 159 0.0 0.0 0.00 0.00 0.00 69 1018.9
20260906122101 74 159 0.0 0.0 0.00 0.00 0.00 69 1018.8
20260906122002 74 159 0.0 0.0 0.00 0.00 0.00 68 1018.8
20260906121901 74 159 0.0 0.0 0.00 0.00 0.00 68 1018.8
20260906121702 74 159 0.0 0.0 0.00 0.00 0.00 68 1018.8
20260906121600 74 159 0.0 0.0 0.00 0.00 0.00 68 1018.9
20260906121501 74 159 0.0 0.0 0.00 0.00 0.00 68 1018.9
20260906121401 74 159 0.0 0.0 0.00 0.00 0.00 68 1018.8
20260906121300 74 159 0.0 0.0 0.00 0.00 0.00 68 1018.8
20260906121203 74 159 0.0 0.0 0.00 0.00 0.00 68 1018.8
20260906121102 74 159 0.0 0.0 0.00 0.00 0.00 68 1018.8
20260906120902 74 159 0.0 0.0 0.00 0.00 0.00 67 1018.7
20260906120802 74 159 0.0 0.0 0.00 0.00 0.00 66 1018.7
20260906120701 74 159 0.0 0.0 0.00 0.00 0.00 66 1018.7
20260906120602 74 159 0.0 0.0 0.00 0.00 0.00 66 1018.7
20260906120400 74 159 0.0 0.0 0.00 0.00 0.00 65 1018.7
20260906120300 74 159 0.0 0.0 0.00 0.00 0.00 65 1018.7
20260906120202 74 159 0.0 0.0 0.00 0.00 0.00 64 1018.8
20260906120104 74 159 0.0 0.0 0.00 0.00 0.00 64 1018.7
20260906115903 74 159 0.0 0.0 0.00 0.00 0.00 64 1018.7
20260906115803 74 159 0.0 0.0 0.00 0.00 0.00 64 1018.6
20260906115704 74 159 0.0 0.0 0.00 0.00 0.00 64 1018.6
20260906115603 74 160 0.0 0.0 0.00 0.00 0.00 64 1018.6
20260906115503 75 159 0.0 0.0 0.00 0.00 0.00 64 1018.6
20260906115402 75 160 0.0 0.0 0.00 0.00 0.00 64 1018.6
20260906115306 75 160 0.0 0.0 0.00 0.00 0.00 63 1018.6
20260906115202 75 160 0.0 0.0 0.00 0.00 0.00 63 1018.6
20260906115101 75 160 0.0 0.0 0.00 0.00 0.00 63 1018.6
20260906114903 75 160 0.0 0.0 0.00 0.00 0.00 62 1018.6
20260906114802 76 160 0.0 0.0 0.00 0.00 0.00 62 1018.6
20260906114702 76 160 0.0 0.0 0.00 0.00 0.00 62 1018.5
20260906114602 76 160 0.0 0.0 0.00 0.00 0.00 62 1018.5
20260906114502 76 160 0.0 0.0 0.00 0.00 0.00 61 1018.5
20260906114402 76 160 0.0 0.0 0.00 0.00 0.00 61 1018.5
20260906114301 77 160 0.0 0.0 0.00 0.00 0.00 61 1018.5
20260906114202 77 159 0.0 0.0 0.00 0.00 0.00 61 1018.4
20260906114103 77 159 0.0 0.0 0.00 0.00 0.00 61 1018.5
20260906114001 77 159 0.0 0.0 0.00 0.00 0.00 61 1018.4
20260906113903 77 160 0.0 0.0 0.00 0.00 0.00 61 1018.4
20260906113704 78 159 0.0 0.0 0.00 0.00 0.00 64 1018.4
20260906113603 78 159 0.0 0.0 0.00 0.00 0.00 64 1018.3
20260906113502 77 159 0.0 0.0 0.00 0.00 0.00 64 1018.3
20260906113402 77 159 0.0 0.0 0.00 0.00 0.00 64 1018.3
20260906113202 77 159 0.0 0.0 0.00 0.00 0.00 64 1018.3
20260906113102 77 159 0.0 0.0 0.00 0.00 0.00 64 1018.3
20260906113002 77 159 0.0 0.0 0.00 0.00 0.00 64 1018.2
20260906112801 77 159 0.0 0.0 0.00 0.00 0.00 64 1018.2
20260906112601 77 159 0.0 0.0 0.00 0.00 0.00 64 1018.2
20260906112502 77 159 0.0 0.0 0.00 0.00 0.00 64 1018.2
20260906112306 77 159 0.0 0.0 0.00 0.00 0.00 65 1018.1
20260906112201 77 159 0.0 0.0 0.00 0.00 0.00 65 1018.1
20260906112101 77 159 0.0 0.0 0.00 0.00 0.00 65 1018.1
20260906112002 77 159 0.0 0.0 0.00 0.00 0.00 65 1018.1
20260906111901 77 159 0.0 0.0 0.00 0.00 0.00 65 1018.1
20260906111801 77 159 0.0 0.0 0.00 0.00 0.00 65 1018.1
20260906111502 76 159 0.0 0.0 0.00 0.00 0.00 66 1018.1
20260906111302 76 159 0.0 0.0 0.00 0.00 0.00 65 1018.1
20260906111201 76 159 0.0 0.0 0.00 0.00 0.00 65 1018.1
20260906111001 76 159 0.0 0.0 0.00 0.00 0.00 65 1018.1
20260906110902 76 159 0.0 0.0 0.00 0.00 0.00 65 1018.2
20260906110800 76 159 0.0 0.0 0.00 0.00 0.00 65 1018.1
20260906110701 76 160 0.0 0.0 0.00 0.00 0.00 65 1018.2
20260906110602 76 159 0.0 2.0 0.00 0.00 0.00 65 1018.2
20260906110502 76 160 0.0 3.0 0.00 0.00 0.00 64 1018.1
20260906110424 76 160 0.0 3.0 0.00 0.00 0.00 64 1018.2
20260906110237 76 160 0.0 3.0 0.00 0.00 0.00 64 1018.2
20260906105802 76 160 0.0 3.0 0.00 0.00 0.00 63 1018.1
20260906105703 77 160 2.0 3.0 0.00 0.00 0.00 62 1018.1
20260906105602 77 160 4.0 4.0 0.00 0.00 0.00 62 1018.1
20260906105503 77 160 0.0 2.0 0.00 0.00 0.00 62 1018.1
20260906105402 77 160 0.0 2.0 0.00 0.00 0.00 61 1018.0
20260906105201 77 160 0.0 3.0 0.00 0.00 0.00 61 1018.0
20260906105101 77 160 0.0 3.0 0.00 0.00 0.00 61 1018.0
20260906104903 77 160 0.0 3.0 0.00 0.00 0.00 62 1017.9
20260906104802 78 160 0.0 3.0 0.00 0.00 0.00 62 1017.9
20260906104701 78 160 0.0 3.0 0.00 0.00 0.00 63 1017.9
20260906104601 78 160 1.0 3.0 0.00 0.00 0.00 63 1017.8
20260906104500 78 160 2.0 4.0 0.00 0.00 0.00 63 1017.8
20260906104300 77 160 4.0 4.0 0.00 0.00 0.00 63 1017.8
20260906104202 77 160 2.0 4.0 0.00 0.00 0.00 63 1017.8
20260906104101 77 159 2.0 3.0 0.00 0.00 0.00 63 1017.8
20260906103902 77 159 1.0 4.0 0.00 0.00 0.00 63 1017.7
20260906103802 77 159 2.0 4.0 0.00 0.00 0.00 63 1017.7
20260906103702 77 159 2.0 4.0 0.00 0.00 0.00 62 1017.7
20260906103603 78 159 1.0 3.0 0.00 0.00 0.00 62 1017.7
20260906103501 78 159 0.0 3.0 0.00 0.00 0.00 61 1017.6
20260906103403 78 159 0.0 5.0 0.00 0.00 0.00 60 1017.7
20260906103302 78 159 1.0 5.0 0.00 0.00 0.00 60 1017.6
20260906103203 78 159 2.0 6.0 0.00 0.00 0.00 60 1017.6
20260906103101 78 159 1.0 6.0 0.00 0.00 0.00 60 1017.7
20260906103003 78 159 1.0 6.0 0.00 0.00 0.00 61 1017.7
20260906102901 78 159 2.0 6.0 0.00 0.00 0.00 61 1017.7
20260906102701 78 159 2.0 6.0 0.00 0.00 0.00 61 1017.7
20260906102602 78 159 5.0 6.0 0.00 0.00 0.00 62 1017.7
20260906102501 78 158 3.0 6.0 0.00 0.00 0.00 62 1017.7
20260906102306 78 157 5.0 6.0 0.00 0.00 0.00 62 1017.6
20260906102202 78 156 3.0 6.0 0.00 0.00 0.00 61 1017.6
20260906102101 78 156 3.0 6.0 0.00 0.00 0.00 61 1017.6
20260906101902 78 156 3.0 7.0 0.00 0.00 0.00 61 1017.6
20260906101802 78 156 2.0 7.0 0.00 0.00 0.00 61 1017.6
20260906101701 78 155 2.0 7.0 0.00 0.00 0.00 61 1017.6
20260906101602 78 155 1.0 7.0 0.00 0.00 0.00 61 1017.6
20260906101502 78 155 3.0 7.0 0.00 0.00 0.00 60 1017.6
20260906101403 78 154 3.0 7.0 0.00 0.00 0.00 60 1017.6
20260906101301 79 153 4.0 7.0 0.00 0.00 0.00 60 1017.6
20260906101103 79 150 5.0 7.0 0.00 0.00 0.00 60 1017.6
20260906100959 79 147 5.0 7.0 0.00 0.00 0.00 60 1017.6
20260906100903 79 143 6.0 7.0 0.00 0.00 0.00 60 1017.6
20260906100803 79 141 7.0 7.0 0.00 0.00 0.00 60 1017.6
20260906100701 79 153 7.0 7.0 0.00 0.00 0.00 60 1017.6
20260906100601 79 156 5.0 6.0 0.00 0.00 0.00 60 1017.6
20260906100502 79 157 3.0 5.0 0.00 0.00 0.00 60 1017.6
20260906100402 79 158 3.0 5.0 0.00 0.00 0.00 59 1017.5
20260906100301 79 157 3.0 5.0 0.00 0.00 0.00 59 1017.6
20260906100200 79 158 5.0 5.0 0.00 0.00 0.00 59 1017.6
20260906100004 79 158 3.0 5.0 0.00 0.00 0.00 59 1017.6
20260906095901 79 158 3.0 5.0 0.00 0.00 0.00 59 1017.6
20260906095801 79 158 3.0 7.0 0.00 0.00 0.00 59 1017.6
20260906095701 79 158 2.0 7.0 0.00 0.00 0.00 59 1017.6
20260906095602 79 158 3.0 7.0 0.00 0.00 0.00 59 1017.6
20260906095501 79 158 5.0 7.0 0.00 0.00 0.00 59 1017.6
20260906095402 79 157 3.0 7.0 0.00 0.00 0.00 59 1017.6
20260906095101 79 157 5.0 7.0 0.00 0.00 0.00 58 1017.6
20260906095002 79 157 6.0 7.0 0.00 0.00 0.00 58 1017.6
20260906094701 80 161 4.0 6.0 0.00 0.00 0.00 58 1017.7
20260906094502 80 161 4.0 6.0 0.00 0.00 0.00 58 1017.7
20260906094401 80 161 4.0 6.0 0.00 0.00 0.00 58 1017.7
20260906094202 80 161 4.0 7.0 0.00 0.00 0.00 58 1017.8
20260906094101 80 160 4.0 7.0 0.00 0.00 0.00 58 1017.7
20260906094001 80 160 4.0 7.0 0.00 0.00 0.00 58 1017.7
20260906093902 80 159 4.0 7.0 0.00 0.00 0.00 58 1017.7
20260906093700 80 160 5.0 7.0 0.00 0.00 0.00 57 1017.8
20260906093601 80 159 5.0 7.0 0.00 0.00 0.00 57 1017.7
20260906093301 80 157 5.0 7.0 0.00 0.00 0.00 57 1017.8
20260906093201 80 156 6.0 7.0 0.00 0.00 0.00 57 1017.8
20260906093101 80 155 4.0 7.0 0.00 0.00 0.00 57 1017.8
20260906093003 80 155 7.0 7.0 0.00 0.00 0.00 57 1017.8
20260906092902 80 155 4.0 7.0 0.00 0.00 0.00 57 1017.8
20260906092802 80 154 4.0 7.0 0.00 0.00 0.00 57 1017.8
20260906092701 80 154 4.0 7.0 0.00 0.00 0.00 57 1017.8
20260906092601 80 153 3.0 7.0 0.00 0.00 0.00 56 1017.8
20260906092502 80 153 4.0 7.0 0.00 0.00 0.00 56 1017.8
20260906092403 80 153 4.0 7.0 0.00 0.00 0.00 56 1017.7
20260906092301 80 153 4.0 7.0 0.00 0.00 0.00 56 1017.7
20260906092201 80 153 3.0 7.0 0.00 0.00 0.00 56 1017.7
20260906092100 80 153 3.0 7.0 0.00 0.00 0.00 56 1017.8
20260906092002 80 153 3.0 7.0 0.00 0.00 0.00 56 1017.7
20260906091902 80 153 3.0 7.0 0.00 0.00 0.00 56 1017.7
20260906091801 80 153 4.0 7.0 0.00 0.00 0.00 56 1017.8
20260906091701 80 153 5.0 7.0 0.00 0.00 0.00 56 1017.8
20260906091502 80 157 5.0 7.0 0.00 0.00 0.00 56 1017.8
20260906091401 80 158 5.0 7.0 0.00 0.00 0.00 56 1017.8
20260906091302 80 161 5.0 7.0 0.00 0.00 0.00 56 1017.8
20260906091200 80 161 5.0 7.0 0.00 0.00 0.00 56 1017.8
20260906091002 80 166 6.0 6.0 0.00 0.00 0.00 56 1017.8
20260906090901 80 167 6.0 6.0 0.00 0.00 0.00 56 1017.8
20260906090802 80 178 3.0 5.0 0.00 0.00 0.00 56 1017.8
20260906090701 80 181 3.0 4.0 0.00 0.00 0.00 56 1017.8
20260906090600 80 182 3.0 4.0 0.00 0.00 0.00 56 1017.8
20260906090501 80 182 1.0 4.0 0.00 0.00 0.00 56 1017.8
20260906090401 80 182 3.0 4.0 0.00 0.00 0.00 56 1017.8
20260906090301 80 183 3.0 4.0 0.00 0.00 0.00 56 1017.8
20260906090201 80 183 3.0 4.0 0.00 0.00 0.00 56 1017.8
20260906090004 80 184 3.0 4.0 0.00 0.00 0.00 55 1017.7
20260906085902 80 184 2.0 4.0 0.00 0.00 0.00 55 1017.8
20260906085802 80 184 3.0 4.0 0.00 0.00 0.00 55 1017.8
20260906085701 81 184 3.0 4.0 0.00 0.00 0.00 55 1017.8
20260906085501 81 186 2.0 4.0 0.00 0.00 0.00 55 1017.8
20260906085402 81 186 3.0 4.0 0.00 0.00 0.00 55 1017.8
20260906085301 81 187 3.0 4.0 0.00 0.00 0.00 55 1017.8
20260906085202 81 187 2.0 5.0 0.00 0.00 0.00 55 1017.8
20260906085001 81 190 3.0 6.0 0.00 0.00 0.00 54 1017.7
20260906084901 81 190 3.0 6.0 0.00 0.00 0.00 54 1017.8
20260906084600 81 191 3.0 6.0 0.00 0.00 0.00 54 1017.7
20260906084501 81 192 3.0 6.0 0.00 0.00 0.00 54 1017.7
20260906084259 81 194 4.0 6.0 0.00 0.00 0.00 55 1017.7
20260906084028 81 198 5.0 6.0 0.00 0.00 0.00 55 1017.8
20260906083602 81 188 3.0 3.0 0.00 0.00 0.00 54 1017.8
20260906083502 81 187 2.0 3.0 0.00 0.00 0.00 54 1017.7
20260906083401 81 187 0.0 4.0 0.00 0.00 0.00 54 1017.7
20260906083302 81 187 1.0 5.0 0.00 0.00 0.00 54 1017.7
20260906083212 81 187 1.0 5.0 0.00 0.00 0.00 54 1017.7
20260906083103 81 187 2.0 5.0 0.00 0.00 0.00 54 1017.7
20260906083002 81 187 1.0 5.0 0.00 0.00 0.00 54 1017.7
20260906082803 82 187 1.0 5.0 0.00 0.00 0.00 54 1017.7
20260906082601 82 187 3.0 5.0 0.00 0.00 0.00 54 1017.7
20260906082503 82 186 3.0 5.0 0.00 0.00 0.00 53 1017.7
20260906082400 82 182 2.0 4.0 0.00 0.00 0.00 53 1017.7
20260906082305 82 180 4.0 4.0 0.00 0.00 0.00 53 1017.7
20260906082202 82 180 2.0 5.0 0.00 0.00 0.00 53 1017.7
20260906082102 82 180 2.0 5.0 0.00 0.00 0.00 53 1017.7
20260906081901 82 180 3.0 5.0 0.00 0.00 0.00 53 1017.6
20260906081801 82 180 2.0 5.0 0.00 0.00 0.00 53 1017.6
20260906081700 82 180 3.0 5.0 0.00 0.00 0.00 53 1017.6
20260906081602 82 180 3.0 5.0 0.00 0.00 0.00 53 1017.7
20260906081401 83 178 3.0 7.0 0.00 0.00 0.00 52 1017.7
20260906081301 83 178 3.0 7.0 0.00 0.00 0.00 52 1017.6
20260906081201 83 178 3.0 7.0 0.00 0.00 0.00 52 1017.7
20260906081101 83 178 4.0 7.0 0.00 0.00 0.00 52 1017.7
20260906081001 83 177 4.0 7.0 0.00 0.00 0.00 52 1017.7
20260906080801 83 175 6.0 7.0 0.00 0.00 0.00 52 1017.7
20260906080702 83 178 4.0 7.0 0.00 0.00 0.00 52 1017.7
20260906080501 83 180 6.0 8.0 0.00 0.00 0.00 52 1017.7
20260906080400 83 186 4.0 8.0 0.00 0.00 0.00 53 1017.7
20260906080301 83 175 6.0 8.0 0.00 0.00 0.00 53 1017.6
20260906080202 83 183 6.0 8.0 0.00 0.00 0.00 53 1017.7
20260906080000 82 185 5.0 8.0 0.00 0.00 0.00 53 1017.7
20260906075900 82 175 4.0 8.0 0.00 0.00 0.00 53 1017.7
20260906075759 82 177 7.0 8.0 0.00 0.00 0.00 53 1017.7
20260906075700 82 181 4.0 7.0 0.00 0.00 0.00 53 1017.7
20260906075601 82 183 5.0 7.0 0.00 0.00 0.00 53 1017.6
20260906075501 82 188 6.0 7.0 0.00 0.00 0.00 53 1017.6
20260906075400 82 180 3.0 5.0 0.00 0.00 0.00 53 1017.6
20260906075305 82 180 5.0 5.0 0.00 0.00 0.00 53 1017.6
20260906075200 82 179 4.0 5.0 0.00 0.00 0.00 53 1017.6
20260906075100 82 179 4.0 5.0 0.00 0.00 0.00 52 1017.5
20260906075001 82 177 4.0 5.0 0.00 0.00 0.00 52 1017.5
20260906074900 83 178 4.0 5.0 0.00 0.00 0.00 52 1017.5
20260906074701 83 173 5.0 7.0 0.00 0.00 0.00 52 1017.5
20260906074600 83 171 4.0 7.0 0.00 0.00 0.00 52 1017.5
20260906074500 83 173 5.0 7.0 0.00 0.00 0.00 52 1017.6
20260906074400 83 171 5.0 7.0 0.00 0.00 0.00 52 1017.5
20260906074300 83 171 5.0 7.0 0.00 0.00 0.00 52 1017.6
20260906074202 83 168 5.0 7.0 0.00 0.00 0.00 52 1017.6
20260906074100 83 167 5.0 7.0 0.00 0.00 0.00 52 1017.5
20260906074000 83 166 5.0 7.0 0.00 0.00 0.00 52 1017.5
20260906073859 83 163 4.0 7.0 0.00 0.00 0.00 52 1017.5
20260906073759 83 163 5.0 7.0 0.00 0.00 0.00 52 1017.6
20260906073702 83 164 7.0 7.0 0.00 0.00 0.00 52 1017.5
20260906073601 83 162 5.0 7.0 0.00 0.00 0.00 52 1017.5
20260906073401 83 161 7.0 9.0 0.00 0.00 0.00 51 1017.5
20260906073302 83 161 5.0 9.0 0.00 0.00 0.00 52 1017.5
20260906073200 83 161 6.0 9.0 0.00 0.00 0.00 51 1017.5
20260906073059 83 163 5.0 9.0 0.00 0.00 0.00 51 1017.6
20260906073000 83 163 5.0 9.0 0.00 0.00 0.00 51 1017.6
20260906072901 83 167 5.0 9.0 0.00 0.00 0.00 51 1017.6
20260906072800 83 161 5.0 9.0 0.00 0.00 0.00 51 1017.6
20260906072559 83 160 6.0 9.0 0.00 0.00 0.00 51 1017.6
20260906072500 83 162 6.0 9.0 0.00 0.00 0.00 51 1017.6
20260906072400 83 157 6.0 9.0 0.00 0.00 0.00 51 1017.6
20260906072300 83 156 7.0 9.0 0.00 0.00 0.00 51 1017.6
20260906072200 83 155 6.0 8.0 0.00 0.00 0.00 51 1017.6
20260906072101 83 155 7.0 8.0 0.00 0.00 0.00 51 1017.6
20260906072001 83 154 6.0 8.0 0.00 0.00 0.00 51 1017.6
20260906071900 83 153 5.0 8.0 0.00 0.00 0.00 51 1017.6
20260906071800 84 152 4.0 8.0 0.00 0.00 0.00 51 1017.6
20260906071601 84 151 4.0 8.0 0.00 0.00 0.00 51 1017.7
20260906071500 84 151 6.0 7.0 0.00 0.00 0.00 50 1017.6
20260906071402 84 155 3.0 7.0 0.00 0.00 0.00 50 1017.6
20260906071300 84 155 4.0 7.0 0.00 0.00 0.00 50 1017.6
20260906071200 84 155 6.0 7.0 0.00 0.00 0.00 50 1017.6
20260906070959 84 150 4.0 9.0 0.00 0.00 0.00 50 1017.6
20260906070900 84 148 4.0 9.0 0.00 0.00 0.00 50 1017.7
20260906070700 84 148 3.0 9.0 0.00 0.00 0.00 50 1017.7
20260906070617 84 148 4.0 9.0 0.00 0.00 0.00 50 1017.7
20260906070525 84 148 3.0 9.0 0.00 0.00 0.00 50 1017.7
20260906070319 84 147 4.0 9.0 0.00 0.00 0.00 50 1017.8
20260906070100 84 141 5.0 8.0 0.00 0.00 0.00 50 1017.7
20260906065900 84 139 7.0 8.0 0.00 0.00 0.00 50 1017.7
20260906065800 84 136 4.0 8.0 0.00 0.00 0.00 49 1017.7
20260906065700 85 132 7.0 8.0 0.00 0.00 0.00 49 1017.8
20260906065559 85 131 5.0 9.0 0.00 0.00 0.00 49 1017.7
20260906065503 85 134 4.0 10.0 0.00 0.00 0.00 49 1017.7
20260906065301 85 134 8.0 10.0 0.00 0.00 0.00 49 1017.7
20260906065159 85 140 5.0 10.0 0.00 0.00 0.00 49 1017.8
20260906065100 85 141 4.0 10.0 0.00 0.00 0.00 49 1017.8
20260906065000 85 138 3.0 10.0 0.00 0.00 0.00 49 1017.8
20260906064900 85 138 4.0 10.0 0.00 0.00 0.00 49 1017.8
20260906064759 85 138 4.0 10.0 0.00 0.00 0.00 49 1017.8
20260906064701 85 136 5.0 10.0 0.00 0.00 0.00 49 1017.8
20260906064600 85 140 3.0 10.0 0.00 0.00 0.00 49 1017.7
20260906064500 85 134 5.0 10.0 0.00 0.00 0.00 49 1017.8
20260906064401 85 138 7.0 10.0 0.00 0.00 0.00 49 1017.7
20260906064300 85 142 8.0 10.0 0.00 0.00 0.00 49 1017.8
20260906064200 85 146 5.0 10.0 0.00 0.00 0.00 49 1017.8
20260906064101 85 146 5.0 10.0 0.00 0.00 0.00 49 1017.8
20260906064000 85 145 5.0 10.0 0.00 0.00 0.00 49 1017.7
20260906063801 85 145 4.0 10.0 0.00 0.00 0.00 49 1017.7
20260906063701 85 145 5.0 10.0 0.00 0.00 0.00 49 1017.7
20260906063600 85 147 5.0 10.0 0.00 0.00 0.00 49 1017.7
20260906063501 85 153 4.0 10.0 0.00 0.00 0.00 49 1017.7
20260906063300 85 154 6.0 10.0 0.00 0.00 0.00 49 1017.7
20260906063159 85 144 8.0 10.0 0.00 0.00 0.00 49 1017.6
20260906063102 85 156 6.0 11.0 0.00 0.00 0.00 49 1017.7
20260906063001 85 155 8.0 11.0 0.00 0.00 0.00 48 1017.7
20260906062900 85 154 7.0 11.0 0.00 0.00 0.00 48 1017.6
20260906062800 85 159 6.0 12.0 0.00 0.00 0.00 48 1017.6
20260906062700 85 155 4.0 12.0 0.00 0.00 0.00 48 1017.6
20260906062559 86 156 8.0 12.0 0.00 0.00 0.00 48 1017.6
20260906062500 86 155 8.0 12.0 0.00 0.00 0.00 48 1017.6
20260906062301 86 157 8.0 12.0 0.00 0.00 0.00 48 1017.6
20260906062100 86 158 6.0 12.0 0.00 0.00 0.00 48 1017.5
20260906062000 86 153 11.0 12.0 0.00 0.00 0.00 48 1017.5
20260906061700 86 148 6.0 12.0 0.00 0.00 0.00 49 1017.5
20260906061600 86 151 12.0 12.0 0.00 0.00 0.00 48 1017.5
20260906061400 86 152 10.0 13.0 0.00 0.00 0.00 49 1017.5
20260906061300 86 148 9.0 13.0 0.00 0.00 0.00 49 1017.5
20260906061201 86 154 7.0 13.0 0.00 0.00 0.00 49 1017.5
20260906061102 85 154 7.0 13.0 0.00 0.00 0.00 49 1017.5
20260906061001 85 153 8.0 13.0 0.00 0.00 0.00 49 1017.5
20260906060901 85 141 10.0 13.0 0.00 0.00 0.00 49 1017.5
20260906060801 85 153 9.0 13.0 0.00 0.00 0.00 49 1017.5
20260906060701 85 151 9.0 13.0 0.00 0.00 0.00 49 1017.5
20260906060601 85 144 6.0 13.0 0.00 0.00 0.00 49 1017.5
20260906060502 85 143 11.0 12.0 0.00 0.00 0.00 50 1017.5
20260906060402 85 149 11.0 12.0 0.00 0.00 0.00 50 1017.5
20260906060302 85 147 9.0 12.0 0.00 0.00 0.00 50 1017.5
20260906060201 85 143 9.0 11.0 0.00 0.00 0.00 50 1017.5
20260906055902 85 150 10.0 11.0 0.00 0.00 0.00 50 1017.5
20260906055802 85 132 10.0 11.0 0.00 0.00 0.00 49 1017.5
20260906055702 85 139 9.0 11.0 0.00 0.00 0.00 49 1017.5
20260906055602 85 128 9.0 10.0 0.00 0.00 0.00 49 1017.5
20260906055502 85 136 8.0 10.0 0.00 0.00 0.00 49 1017.5
20260906055402 85 144 6.0 10.0 0.00 0.00 0.00 49 1017.5
20260906055306 85 132 9.0 10.0 0.00 0.00 0.00 49 1017.5
20260906055002 85 151 8.0 11.0 0.00 0.00 0.00 49 1017.5
20260906054802 85 151 6.0 11.0 0.00 0.00 0.00 49 1017.5
20260906054703 85 141 10.0 11.0 0.00 0.00 0.00 49 1017.5
20260906054602 85 142 8.0 11.0 0.00 0.00 0.00 49 1017.6
20260906054502 85 135 9.0 11.0 0.00 0.00 0.00 49 1017.5
20260906054303 85 139 9.0 11.0 0.00 0.00 0.00 49 1017.5
20260906054203 85 138 8.0 11.0 0.00 0.00 0.00 50 1017.5
20260906054102 85 140 7.0 9.0 0.00 0.00 0.00 49 1017.5
20260906054002 85 141 8.0 9.0 0.00 0.00 0.00 49 1017.6
20260906053903 85 136 7.0 9.0 0.00 0.00 0.00 49 1017.6
20260906053801 85 137 8.0 9.0 0.00 0.00 0.00 49 1017.5
20260906053702 85 132 7.0 9.0 0.00 0.00 0.00 49 1017.5
20260906053603 85 136 5.0 9.0 0.00 0.00 0.00 49 1017.5
20260906053402 85 136 4.0 9.0 0.00 0.00 0.00 49 1017.5
20260906053303 85 134 5.0 9.0 0.00 0.00 0.00 49 1017.6
20260906053202 85 137 5.0 10.0 0.00 0.00 0.00 49 1017.6
20260906053102 85 133 7.0 10.0 0.00 0.00 0.00 49 1017.6
20260906052803 85 138 7.0 10.0 0.00 0.00 0.00 48 1017.5
20260906052602 85 143 8.0 10.0 0.00 0.00 0.00 49 1017.5
20260906052503 85 138 7.0 10.0 0.00 0.00 0.00 49 1017.5
20260906052403 85 135 8.0 10.0 0.00 0.00 0.00 49 1017.5
20260906052305 85 137 8.0 9.0 0.00 0.00 0.00 49 1017.5
20260906052202 85 140 7.0 9.0 0.00 0.00 0.00 49 1017.5
20260906052103 85 143 8.0 9.0 0.00 0.00 0.00 49 1017.5
20260906051903 84 144 8.0 8.0 0.00 0.00 0.00 49 1017.5
20260906051802 84 146 5.0 8.0 0.00 0.00 0.00 49 1017.6
20260906051702 84 146 4.0 8.0 0.00 0.00 0.00 49 1017.5
20260906051603 84 148 4.0 8.0 0.00 0.00 0.00 50 1017.6
20260906051503 84 150 5.0 8.0 0.00 0.00 0.00 50 1017.6
20260906051403 84 153 8.0 8.0 0.00 0.00 0.00 50 1017.6
20260906051202 84 157 6.0 6.0 0.00 0.00 0.00 50 1017.5
20260906051000 84 159 4.0 6.0 0.00 0.00 0.00 50 1017.5
20260906050902 84 159 5.0 6.0 0.00 0.00 0.00 50 1017.5
20260906050804 84 159 5.0 6.0 0.00 0.00 0.00 50 1017.5
20260906050604 83 161 2.0 5.0 0.00 0.00 0.00 50 1017.5
20260906050502 84 161 4.0 5.0 0.00 0.00 0.00 50 1017.5
20260906050403 83 161 4.0 5.0 0.00 0.00 0.00 50 1017.5
20260906050303 84 161 2.0 5.0 0.00 0.00 0.00 50 1017.5
20260906050203 84 161 4.0 6.0 0.00 0.00 0.00 49 1017.5
20260906050104 84 161 4.0 6.0 0.00 0.00 0.00 49 1017.5
20260906050002 84 161 2.0 6.0 0.00 0.00 0.00 49 1017.5
20260906045902 84 161 2.0 6.0 0.00 0.00 0.00 49 1017.5
20260906045702 84 161 2.0 6.0 0.00 0.00 0.00 49 1017.5
20260906045603 84 161 4.0 6.0 0.00 0.00 0.00 49 1017.4
20260906045503 84 161 4.0 6.0 0.00 0.00 0.00 49 1017.5
20260906045402 84 161 5.0 6.0 0.00 0.00 0.00 49 1017.5
20260906045301 84 161 2.0 5.0 0.00 0.00 0.00 49 1017.5
20260906045202 84 161 4.0 5.0 0.00 0.00 0.00 49 1017.5
20260906045103 84 161 4.0 5.0 0.00 0.00 0.00 49 1017.5
20260906045002 84 161 4.0 5.0 0.00 0.00 0.00 49 1017.5
20260906044902 84 162 4.0 5.0 0.00 0.00 0.00 48 1017.5
20260906044701 84 162 4.0 6.0 0.00 0.00 0.00 48 1017.5
20260906044602 84 162 4.0 6.0 0.00 0.00 0.00 48 1017.4
20260906044502 84 162 4.0 6.0 0.00 0.00 0.00 48 1017.5
20260906044302 84 162 4.0 6.0 0.00 0.00 0.00 48 1017.5
20260906044202 84 162 2.0 6.0 0.00 0.00 0.00 48 1017.5
20260906044102 84 162 4.0 6.0 0.00 0.00 0.00 48 1017.5
20260906044003 84 162 4.0 6.0 0.00 0.00 0.00 48 1017.5
20260906043901 84 162 4.0 6.0 0.00 0.00 0.00 48 1017.5
20260906043802 84 162 4.0 6.0 0.00 0.00 0.00 48 1017.5
20260906043701 85 161 4.0 6.0 0.00 0.00 0.00 47 1017.5
20260906043601 85 161 5.0 6.0 0.00 0.00 0.00 47 1017.5
20260906043502 85 161 4.0 7.0 0.00 0.00 0.00 47 1017.5
20260906043402 85 161 4.0 7.0 0.00 0.00 0.00 47 1017.5
20260906043302 85 161 2.0 8.0 0.00 0.00 0.00 47 1017.5
20260906043202 85 161 5.0 8.0 0.00 0.00 0.00 47 1017.5
20260906043101 85 161 4.0 8.0 0.00 0.00 0.00 47 1017.5
20260906043002 85 161 5.0 8.0 0.00 0.00 0.00 47 1017.5
20260906042802 85 159 4.0 9.0 0.00 0.00 0.00 47 1017.5
20260906042703 85 159 4.0 9.0 0.00 0.00 0.00 47 1017.6
20260906042503 85 158 5.0 9.0 0.00 0.00 0.00 47 1017.5
20260906042306 85 155 7.0 9.0 0.00 0.00 0.00 46 1017.5
20260906042203 85 153 5.0 9.0 0.00 0.00 0.00 46 1017.5
20260906042102 85 150 4.0 9.0 0.00 0.00 0.00 46 1017.5
20260906042002 85 151 5.0 9.0 0.00 0.00 0.00 46 1017.5
20260906041901 85 148 5.0 9.0 0.00 0.00 0.00 46 1017.5
20260906041802 85 144 5.0 9.0 0.00 0.00 0.00 46 1017.5
20260906041702 85 144 9.0 9.0 0.00 0.00 0.00 46 1017.5
20260906041602 85 144 8.0 8.0 0.00 0.00 0.00 46 1017.4
20260906041502 85 146 5.0 8.0 0.00 0.00 0.00 46 1017.5
20260906041402 85 146 4.0 8.0 0.00 0.00 0.00 46 1017.5
20260906041302 85 146 6.0 8.0 0.00 0.00 0.00 46 1017.5
20260906041202 85 146 5.0 8.0 0.00 0.00 0.00 46 1017.6
20260906041002 85 149 5.0 8.0 0.00 0.00 0.00 45 1017.5
20260906040902 85 150 5.0 8.0 0.00 0.00 0.00 45 1017.5
20260906040803 85 149 5.0 8.0 0.00 0.00 0.00 45 1017.6
20260906040602 85 149 5.0 8.0 0.00 0.00 0.00 45 1017.6
20260906040503 85 148 8.0 8.0 0.00 0.00 0.00 45 1017.7
20260906040302 85 144 5.0 8.0 0.00 0.00 0.00 45 1017.7
20260906040202 85 145 6.0 8.0 0.00 0.00 0.00 45 1017.7
20260906040003 85 146 5.0 8.0 0.00 0.00 0.00 45 1017.7
20260906035902 85 146 4.0 8.0 0.00 0.00 0.00 45 1017.7
20260906035602 85 146 5.0 8.0 0.00 0.00 0.00 45 1017.8
20260906035502 85 146 6.0 8.0 0.00 0.00 0.00 45 1017.8
20260906035403 85 148 5.0 8.0 0.00 0.00 0.00 45 1017.8
20260906035305 85 146 6.0 8.0 0.00 0.00 0.00 45 1017.8
20260906035201 84 141 5.0 8.0 0.00 0.00 0.00 45 1017.8
20260906035103 84 143 5.0 8.0 0.00 0.00 0.00 45 1017.8
20260906034902 84 144 4.0 9.0 0.00 0.00 0.00 44 1017.8
20260906034802 84 141 5.0 9.0 0.00 0.00 0.00 44 1017.8
20260906034702 84 142 5.0 9.0 0.00 0.00 0.00 44 1017.8
20260906034602 84 143 6.0 9.0 0.00 0.00 0.00 44 1017.8
20260906034502 84 142 4.0 9.0 0.00 0.00 0.00 44 1017.8
20260906034402 84 142 5.0 9.0 0.00 0.00 0.00 44 1017.8
20260906034302 84 140 7.0 9.0 0.00 0.00 0.00 44 1017.8
20260906034202 84 138 7.0 9.0 0.00 0.00 0.00 44 1017.8
20260906034102 84 142 6.0 9.0 0.00 0.00 0.00 44 1017.7
20260906034002 84 143 6.0 8.0 0.00 0.00 0.00 44 1017.7
20260906033901 84 140 5.0 8.0 0.00 0.00 0.00 44 1017.7
20260906033802 84 142 5.0 8.0 0.00 0.00 0.00 44 1017.7
20260906033703 84 146 6.0 8.0 0.00 0.00 0.00 44 1017.7
20260906033603 84 142 5.0 8.0 0.00 0.00 0.00 44 1017.7
20260906033503 84 141 7.0 7.0 0.00 0.00 0.00 44 1017.7
20260906033401 84 144 6.0 7.0 0.00 0.00 0.00 44 1017.8
20260906033202 84 140 5.0 7.0 0.00 0.00 0.00 43 1017.8
20260906033103 84 140 4.0 7.0 0.00 0.00 0.00 43 1017.8
20260906033002 84 141 5.0 5.0 0.00 0.00 0.00 43 1017.7
20260906032802 84 140 5.0 5.0 0.00 0.00 0.00 43 1017.7
20260906032703 84 140 5.0 5.0 0.00 0.00 0.00 43 1017.7
20260906032602 84 141 4.0 5.0 0.00 0.00 0.00 43 1017.7
20260906032502 84 142 5.0 5.0 0.00 0.00 0.00 43 1017.7
20260906032402 85 144 5.0 5.0 0.00 0.00 0.00 43 1017.7
20260906032305 85 144 5.0 5.0 0.00 0.00 0.00 43 1017.7
20260906032202 85 144 5.0 7.0 0.00 0.00 0.00 43 1017.7
20260906032102 85 144 5.0 7.0 0.00 0.00 0.00 43 1017.7
20260906032004 85 144 3.0 7.0 0.00 0.00 0.00 43 1017.6
20260906031802 85 142 3.0 7.0 0.00 0.00 0.00 42 1017.6
20260906031702 85 142 5.0 7.0 0.00 0.00 0.00 42 1017.6
20260906031602 85 142 4.0 7.0 0.00 0.00 0.00 42 1017.6
20260906031504 85 141 5.0 7.0 0.00 0.00 0.00 42 1017.6
20260906031402 86 142 4.0 8.0 0.00 0.00 0.00 42 1017.6
20260906031303 86 140 5.0 8.0 0.00 0.00 0.00 42 1017.5
20260906031202 86 140 7.0 8.0 0.00 0.00 0.00 42 1017.5
20260906031103 86 139 7.0 8.0 0.00 0.00 0.00 42 1017.4
20260906031002 86 138 4.0 8.0 0.00 0.00 0.00 42 1017.5
20260906030903 86 140 5.0 8.0 0.00 0.00 0.00 42 1017.5
20260906030802 86 138 7.0 8.0 0.00 0.00 0.00 42 1017.5
20260906030601 86 138 7.0 8.0 0.00 0.00 0.00 42 1017.5
20260906030502 86 138 5.0 7.0 0.00 0.00 0.00 42 1017.5
20260906030402 86 137 5.0 7.0 0.00 0.00 0.00 42 1017.4
20260906030302 86 140 5.0 7.0 0.00 0.00 0.00 41 1017.5
20260906030202 86 138 7.0 7.0 0.00 0.00 0.00 41 1017.5
20260906030006 86 144 5.0 7.0 0.00 0.00 0.00 41 1017.4
20260906025904 87 145 5.0 7.0 0.00 0.00 0.00 41 1017.5
20260906025804 87 144 4.0 7.0 0.00 0.00 0.00 40 1017.5
20260906025704 87 144 5.0 7.0 0.00 0.00 0.00 40 1017.5
20260906025604 87 144 4.0 7.0 0.00 0.00 0.00 40 1017.5
20260906025503 87 144 5.0 7.0 0.00 0.00 0.00 40 1017.5
20260906025404 87 144 5.0 6.0 0.00 0.00 0.00 40 1017.5
20260906025306 87 143 4.0 7.0 0.00 0.00 0.00 40 1017.4
20260906025202 87 143 4.0 7.0 0.00 0.00 0.00 40 1017.4
20260906024903 87 142 4.0 7.0 0.00 0.00 0.00 40 1017.3
20260906024703 87 140 5.0 7.0 0.00 0.00 0.00 40 1017.3
20260906024602 87 140 4.0 7.0 0.00 0.00 0.00 40 1017.3
20260906024403 88 139 4.0 5.0 0.00 0.00 0.00 40 1017.3
20260906024203 88 138 5.0 5.0 0.00 0.00 0.00 40 1017.3
20260906024103 88 137 4.0 5.0 0.00 0.00 0.00 40 1017.3
20260906024005 88 138 4.0 5.0 0.00 0.00 0.00 40 1017.2
20260906023903 88 138 3.0 5.0 0.00 0.00 0.00 39 1017.2
20260906023804 88 138 4.0 5.0 0.00 0.00 0.00 39 1017.1
20260906023704 88 138 4.0 5.0 0.00 0.00 0.00 39 1017.2
20260906023602 88 138 3.0 5.0 0.00 0.00 0.00 39 1017.1
20260906023504 88 138 4.0 5.0 0.00 0.00 0.00 39 1017.1
20260906023303 88 137 3.0 5.0 0.00 0.00 0.00 39 1017.1
20260906023203 88 136 5.0 5.0 0.00 0.00 0.00 39 1017.0
20260906023103 88 136 4.0 5.0 0.00 0.00 0.00 39 1017.0
20260906023004 88 135 4.0 5.0 0.00 0.00 0.00 39 1017.0
20260906022903 88 135 4.0 5.0 0.00 0.00 0.00 39 1017.0
20260906022805 88 134 4.0 4.0 0.00 0.00 0.00 39 1016.9
20260906022703 88 134 3.0 4.0 0.00 0.00 0.00 39 1016.9
20260906022602 88 133 3.0 4.0 0.00 0.00 0.00 39 1016.9
20260906022503 89 132 3.0 4.0 0.00 0.00 0.00 39 1016.9
20260906022306 89 132 4.0 4.0 0.00 0.00 0.00 39 1016.9
20260906022203 89 132 2.0 4.0 0.00 0.00 0.00 38 1016.9
20260906022004 89 131 3.0 4.0 0.00 0.00 0.00 38 1016.9
20260906021903 89 131 3.0 5.0 0.00 0.00 0.00 38 1016.9
20260906021704 89 130 3.0 5.0 0.00 0.00 0.00 38 1016.8
20260906021504 89 130 3.0 5.0 0.00 0.00 0.00 38 1016.8
20260906021404 89 130 3.0 5.0 0.00 0.00 0.00 38 1016.7
20260906021304 89 129 3.0 5.0 0.00 0.00 0.00 38 1016.7
20260906021203 89 129 3.0 5.0 0.00 0.00 0.00 38 1016.7
20260906021103 89 129 4.0 5.0 0.00 0.00 0.00 38 1016.6
20260906021003 89 129 5.0 5.0 0.00 0.00 0.00 38 1016.6
20260906020904 89 128 3.0 5.0 0.00 0.00 0.00 38 1016.5
20260906020804 90 129 4.0 5.0 0.00 0.00 0.00 38 1016.5
20260906020704 90 125 4.0 7.0 0.00 0.00 0.00 38 1016.5
20260906020603 90 124 3.0 7.0 0.00 0.00 0.00 38 1016.5
20260906020503 90 121 5.0 7.0 0.00 0.00 0.00 38 1016.5
20260906020404 90 122 5.0 7.0 0.00 0.00 0.00 38 1016.5
20260906020304 90 122 4.0 7.0 0.00 0.00 0.00 38 1016.5
20260906020203 90 122 5.0 7.0 0.00 0.00 0.00 38 1016.5
20260906015901 90 122 5.0 7.0 0.00 0.00 0.00 37 1016.5
20260906015702 90 124 5.0 7.0 0.00 0.00 0.00 37 1016.5
20260906015602 91 126 4.0 7.0 0.00 0.00 0.00 37 1016.5
20260906015503 91 131 4.0 7.0 0.00 0.00 0.00 37 1016.5
20260906015404 91 126 5.0 7.0 0.00 0.00 0.00 37 1016.5
20260906015305 91 126 5.0 7.0 0.00 0.00 0.00 37 1016.5
20260906015202 91 123 5.0 7.0 0.00 0.00 0.00 37 1016.5
20260906015103 91 121 3.0 7.0 0.00 0.00 0.00 37 1016.5
20260906015002 91 121 4.0 7.0 0.00 0.00 0.00 37 1016.4
20260906014903 91 125 4.0 7.0 0.00 0.00 0.00 37 1016.5
20260906014800 91 123 4.0 7.0 0.00 0.00 0.00 37 1016.4
20260906014702 91 123 4.0 7.0 0.00 0.00 0.00 37 1016.4
20260906014603 91 123 4.0 7.0 0.00 0.00 0.00 37 1016.4
20260906014503 91 128 7.0 7.0 0.00 0.00 0.00 37 1016.4
20260906014402 92 117 7.0 7.0 0.00 0.00 0.00 37 1016.3
20260906014302 92 126 5.0 8.0 0.00 0.00 0.00 37 1016.3
20260906014202 92 123 5.0 8.0 0.00 0.00 0.00 36 1016.3
20260906014103 92 121 5.0 8.0 0.00 0.00 0.00 36 1016.3
20260906014002 92 121 4.0 8.0 0.00 0.00 0.00 36 1016.3
20260906013902 92 126 5.0 8.0 0.00 0.00 0.00 36 1016.3
20260906013803 92 127 4.0 8.0 0.00 0.00 0.00 36 1016.3
20260906013603 92 126 7.0 9.0 0.00 0.00 0.00 36 1016.2
20260906013502 92 132 5.0 9.0 0.00 0.00 0.00 36 1016.2
20260906013403 92 124 5.0 9.0 0.00 0.00 0.00 36 1016.2
20260906013203 92 126 7.0 9.0 0.00 0.00 0.00 36 1016.1
20260906013102 92 126 7.0 10.0 0.00 0.00 0.00 36 1016.1
20260906013003 93 120 7.0 10.0 0.00 0.00 0.00 36 1016.1
20260906012801 93 109 6.0 10.0 0.00 0.00 0.00 36 1016.1
20260906012703 93 134 8.0 10.0 0.00 0.00 0.00 36 1016.0
20260906012603 93 121 5.0 10.0 0.00 0.00 0.00 35 1016.1
20260906012502 93 124 7.0 10.0 0.00 0.00 0.00 35 1016.1
20260906012402 93 122 7.0 10.0 0.00 0.00 0.00 35 1016.1
20260906012306 93 117 6.0 10.0 0.00 0.00 0.00 35 1016.0
20260906012102 93 118 8.0 10.0 0.00 0.00 0.00 35 1016.0
20260906012004 93 118 7.0 10.0 0.00 0.00 0.00 35 1016.0
20260906011904 93 115 7.0 10.0 0.00 0.00 0.00 35 1016.0
20260906011801 93 124 7.0 9.0 0.00 0.00 0.00 35 1016.0
20260906011703 93 120 7.0 9.0 0.00 0.00 0.00 35 1016.0
20260906011602 93 126 5.0 9.0 0.00 0.00 0.00 35 1015.9
20260906011503 93 120 5.0 9.0 0.00 0.00 0.00 35 1016.0
20260906011303 93 118 7.0 9.0 0.00 0.00 0.00 35 1016.0
20260906011202 94 119 7.0 9.0 0.00 0.00 0.00 35 1016.0
20260906011102 94 128 8.0 9.0 0.00 0.00 0.00 35 1015.9
20260906011002 94 122 7.0 9.0 0.00 0.00 0.00 35 1015.9
20260906010903 94 121 7.0 9.0 0.00 0.00 0.00 35 1015.9
20260906010702 94 113 6.0 9.0 0.00 0.00 0.00 34 1015.9
20260906010602 94 118 7.0 9.0 0.00 0.00 0.00 34 1015.9
20260906010505 94 115 7.0 9.0 0.00 0.00 0.00 34 1015.9
20260906010303 94 116 6.0 11.0 0.00 0.00 0.00 34 1016.0
20260906010202 94 119 5.0 11.0 0.00 0.00 0.00 34 1015.9
20260906010103 95 117 7.0 11.0 0.00 0.00 0.00 34 1015.9
20260906010004 95 123 8.0 11.0 0.00 0.00 0.00 34 1015.9
20260906005903 95 119 7.0 11.0 0.00 0.00 0.00 34 1015.9
20260906005803 95 119 8.0 12.0 0.00 0.00 0.00 34 1015.9
20260906005602 95 113 8.0 12.0 0.00 0.00 0.00 34 1015.9
20260906005502 95 113 8.0 13.0 0.00 0.00 0.00 34 1015.8
20260906005402 95 119 8.0 15.0 0.00 0.00 0.00 34 1015.8
20260906005306 95 116 7.0 15.0 0.00 0.00 0.00 33 1015.8
20260906005203 95 123 10.0 15.0 0.00 0.00 0.00 33 1015.8
20260906005103 95 114 7.0 15.0 0.00 0.00 0.00 33 1015.8
20260906005003 95 119 9.0 15.0 0.00 0.00 0.00 33 1015.7
20260906004902 95 114 12.0 15.0 0.00 0.00 0.00 33 1015.7
20260906004803 96 125 8.0 17.0 0.00 0.00 0.00 33 1015.7
20260906004703 96 121 10.0 17.0 0.00 0.00 0.00 33 1015.7
20260906004602 96 111 11.0 17.0 0.00 0.00 0.00 33 1015.7
20260906004402 96 118 10.0 17.0 0.00 0.00 0.00 33 1015.7
20260906004302 96 119 13.0 17.0 0.00 0.00 0.00 33 1015.7
20260906004203 96 115 12.0 17.0 0.00 0.00 0.00 33 1015.7
20260906004103 96 126 12.0 17.0 0.00 0.00 0.00 33 1015.6
20260906004002 96 126 13.0 17.0 0.00 0.00 0.00 33 1015.6
20260906003902 96 123 9.0 16.0 0.00 0.00 0.00 33 1015.6
20260906003803 96 121 15.0 16.0 0.00 0.00 0.00 33 1015.6
20260906003702 96 118 14.0 16.0 0.00 0.00 0.00 33 1015.6
20260906003501 96 124 14.0 16.0 0.00 0.00 0.00 32 1015.6
20260906003402 96 147 14.0 16.0 0.00 0.00 0.00 32 1015.6
20260906003203 96 134 8.0 14.0 0.00 0.00 0.00 32 1015.6
20260906003101 97 139 10.0 15.0 0.00 0.00 0.00 32 1015.6
20260906003002 97 145 11.0 15.0 0.00 0.00 0.00 32 1015.6
20260906002903 97 120 9.0 15.0 0.00 0.00 0.00 32 1015.6
20260906002802 97 129 9.0 15.0 0.00 0.00 0.00 32 1015.6
20260906002702 97 122 10.0 15.0 0.00 0.00 0.00 32 1015.6
20260906002602 97 115 8.0 15.0 0.00 0.00 0.00 32 1015.5
20260906002402 97 121 12.0 16.0 0.00 0.00 0.00 32 1015.6
20260906002305 97 118 13.0 16.0 0.00 0.00 0.00 32 1015.6
20260906002202 97 132 8.0 16.0 0.00 0.00 0.00 32 1015.6
20260906002003 97 111 6.0 16.0 0.00 0.00 0.00 33 1015.6
20260906001902 97 126 10.0 16.0 0.00 0.00 0.00 32 1015.6
20260906001802 97 125 11.0 18.0 0.00 0.00 0.00 32 1015.6
20260906001502 97 131 10.0 18.0 0.00 0.00 0.00 32 1015.6
20260906001402 97 119 11.0 18.0 0.00 0.00 0.00 32 1015.6
20260906001302 97 120 11.0 18.0 0.00 0.00 0.00 32 1015.6
20260906001202 97 135 10.0 18.0 0.00 0.00 0.00 32 1015.5
20260906001002 97 142 11.0 18.0 0.00 0.00 0.00 32 1015.5
20260906000903 97 136 13.0 18.0 0.00 0.00 0.00 32 1015.5
20260906000802 97 123 13.0 18.0 0.00 0.00 0.00 32 1015.6
20260906000703 97 134 10.0 18.0 0.00 0.00 0.00 32 1015.5
20260906000602 97 142 11.0 18.0 0.00 0.00 0.00 32 1015.5
20260906000503 97 142 10.0 18.0 0.00 0.00 0.00 32 1015.5
20260906000403 97 134 10.0 18.0 0.00 0.00 0.00 32 1015.5
20260906000303 97 124 14.0 18.0 0.00 0.00 0.00 32 1015.4
20260906000204 98 120 15.0 16.0 0.00 0.00 0.00 32 1015.4
20260906000103 98 122 11.0 16.0 0.00 0.00 0.00 31 1015.4
20260906000006 98 121 9.0 17.0 0.00 0.00 0.00 31 1015.4
20260905235903 98 127 10.0 17.0 0.00 0.00 0.00 31 1015.3
20260905235802 98 124 10.0 17.0 0.00 0.00 0.00 31 1015.3
20260905235702 98 117 12.0 17.0 0.00 0.00 0.00 31 1015.3
20260905235603 98 130 9.0 17.0 0.00 0.00 0.00 31 1015.3
20260905235402 98 132 14.0 17.0 0.00 0.00 0.00 31 1015.2
20260905235306 98 128 14.0 17.0 0.00 0.00 0.00 31 1015.2
20260905235203 98 119 12.0 17.0 0.00 0.00 0.00 31 1015.2
20260905235003 98 143 12.0 14.0 0.00 0.00 0.00 31 1015.2
20260905234901 98 143 9.0 14.0 0.00 0.00 0.00 31 1015.2
20260905234803 98 136 10.0 14.0 0.00 0.00 0.00 31 1015.2
20260905234702 98 134 9.0 14.0 0.00 0.00 0.00 32 1015.2
20260905234602 98 132 9.0 14.0 0.00 0.00 0.00 32 1015.2
20260905234403 98 162 10.0 16.0 0.00 0.00 0.00 32 1015.2
20260905234302 98 162 7.0 16.0 0.00 0.00 0.00 32 1015.2
20260905234203 98 152 9.0 16.0 0.00 0.00 0.00 32 1015.2
20260905234102 98 165 7.0 16.0 0.00 0.00 0.00 32 1015.2
20260905233903 98 143 10.0 16.0 0.00 0.00 0.00 32 1015.2
20260905233702 98 144 12.0 16.0 0.00 0.00 0.00 32 1015.1
20260905233502 98 140 13.0 15.0 0.00 0.00 0.00 32 1015.0
20260905233403 98 123 9.0 17.0 0.00 0.00 0.00 32 1015.1
20260905233301 98 117 9.0 17.0 0.00 0.00 0.00 32 1015.0
20260905233202 98 119 12.0 17.0 0.00 0.00 0.00 32 1015.1
20260905233103 98 126 11.0 17.0 0.00 0.00 0.00 32 1015.0
20260905233004 98 131 10.0 17.0 0.00 0.00 0.00 32 1015.1
20260905232903 98 138 7.0 17.0 0.00 0.00 0.00 32 1015.1
20260905232802 98 165 11.0 17.0 0.00 0.00 0.00 32 1015.0
20260905232703 98 156 10.0 17.0 0.00 0.00 0.00 31 1015.0
20260905232602 98 146 14.0 17.0 0.00 0.00 0.00 32 1015.0
20260905232502 98 142 14.0 16.0 0.00 0.00 0.00 32 1014.9
20260905232401 98 185 10.0 16.0 0.00 0.00 0.00 32 1014.9
20260905232203 98 155 8.0 18.0 0.00 0.00 0.00 32 1014.9
20260905232102 98 157 7.0 20.0 0.00 0.00 0.00 32 1014.9
20260905232002 98 148 12.0 20.0 0.00 0.00 0.00 32 1014.9
20260905231902 98 156 6.0 20.0 0.00 0.00 0.00 32 1014.8
20260905231802 98 127 10.0 20.0 0.00 0.00 0.00 32 1014.9
20260905231703 98 138 12.0 20.0 0.00 0.00 0.00 31 1014.8
20260905231602 99 136 12.0 20.0 0.00 0.00 0.00 31 1014.9
20260905231502 99 153 10.0 20.0 0.00 0.00 0.00 31 1014.8
20260905231402 99 140 14.0 20.0 0.00 0.00 0.00 31 1014.8
20260905231302 99 166 15.0 19.0 0.00 0.00 0.00 31 1014.8
20260905231202 99 138 17.0 17.0 0.00 0.00 0.00 31 1014.8
20260905231102 99 126 14.0 15.0 0.00 0.00 0.00 31 1014.8
20260905230803 99 166 5.0 15.0 0.00 0.00 0.00 31 1014.9
20260905230603 99 155 7.0 18.0 0.00 0.00 0.00 31 1014.9
20260905230503 99 167 9.0 18.0 0.00 0.00 0.00 30 1014.9
20260905230403 99 154 10.0 18.0 0.00 0.00 0.00 30 1014.9
20260905230303 99 180 13.0 18.0 0.00 0.00 0.00 31 1014.9
20260905230201 99 131 8.0 18.0 0.00 0.00 0.00 30 1014.9
20260905230002 99 128 11.0 18.0 0.00 0.00 0.00 30 1014.8
20260905225903 99 137 14.0 18.0 0.00 0.00 0.00 30 1014.8
20260905225802 99 141 15.0 17.0 0.00 0.00 0.00 31 1014.8
20260905225703 99 126 9.0 17.0 0.00 0.00 0.00 31 1014.8
20260905225601 99 156 5.0 17.0 0.00 0.00 0.00 30 1014.8
20260905225501 99 163 4.0 17.0 0.00 0.00 0.00 30 1014.8
20260905225403 99 165 12.0 17.0 0.00 0.00 0.00 31 1014.8
20260905225305 99 147 12.0 18.0 0.00 0.00 0.00 31 1014.8
20260905225203 99 150 10.0 18.0 0.00 0.00 0.00 31 1014.8
20260905225102 99 152 10.0 18.0 0.00 0.00 0.00 31 1014.8
20260905225002 99 163 11.0 18.0 0.00 0.00 0.00 31 1014.8
20260905224903 99 167 8.0 18.0 0.00 0.00 0.00 31 1014.8
20260905224803 99 159 6.0 18.0 0.00 0.00 0.00 31 1014.8
20260905224503 99 168 17.0 18.0 0.00 0.00 0.00 31 1014.8
20260905224402 99 132 4.0 15.0 0.00 0.00 0.00 31 1014.8
20260905224203 99 141 10.0 15.0 0.00 0.00 0.00 31 1014.8
20260905224102 99 150 11.0 17.0 0.00 0.00 0.00 31 1014.8
20260905224002 99 153 12.0 17.0 0.00 0.00 0.00 31 1014.8
20260905223902 99 201 6.0 17.0 0.00 0.00 0.00 31 1014.8
20260905223803 99 186 7.0 19.0 0.00 0.00 0.00 31 1014.8
20260905223703 99 160 10.0 19.0 0.00 0.00 0.00 31 1014.8
20260905223603 99 152 14.0 19.0 0.00 0.00 0.00 31 1014.8
20260905223503 99 139 14.0 19.0 0.00 0.00 0.00 30 1014.7
20260905223402 99 113 13.0 19.0 0.00 0.00 0.00 30 1014.8
20260905223303 99 130 15.0 19.0 0.00 0.00 0.00 30 1014.7
20260905223202 99 136 14.0 19.0 0.00 0.00 0.00 30 1014.8
20260905223102 99 124 12.0 19.0 0.00 0.00 0.00 30 1014.7
20260905223004 99 150 10.0 19.0 0.00 0.00 0.00 31 1014.8
20260905222801 99 181 9.0 19.0 0.00 0.00 0.00 31 1014.7
20260905222703 99 165 6.0 19.0 0.00 0.00 0.00 31 1014.8
20260905222602 99 146 9.0 19.0 0.00 0.00 0.00 31 1014.8
20260905222502 99 167 8.0 19.0 0.00 0.00 0.00 31 1014.8
20260905222401 99 149 10.0 19.0 0.00 0.00 0.00 31 1014.8
20260905222202 99 144 10.0 19.0 0.00 0.00 0.00 31 1014.8
20260905222104 99 141 18.0 18.0 0.00 0.00 0.00 31 1014.8
20260905222002 99 151 11.0 13.0 0.00 0.00 0.00 31 1014.9
20260905221904 99 162 7.0 13.0 0.00 0.00 0.00 31 1014.8
20260905221803 99 186 7.0 13.0 0.00 0.00 0.00 30 1014.9
20260905221702 99 165 6.0 13.0 0.00 0.00 0.00 30 1014.9
20260905221602 99 165 11.0 15.0 0.00 0.00 0.00 30 1014.9
20260905221402 99 198 7.0 18.0 0.00 0.00 0.00 31 1015.0
20260905221202 99 156 6.0 18.0 0.00 0.00 0.00 31 1014.9
20260905220932 99 145 11.0 18.0 0.00 0.00 0.00 31 1015.0
20260905220602 99 167 14.0 16.0 0.00 0.00 0.00 31 1015.0
20260905220504 99 147 16.0 16.0 0.00 0.00 0.00 31 1015.0
20260905220402 99 168 10.0 15.0 0.00 0.00 0.00 31 1015.0
20260905220202 99 143 9.0 17.0 0.00 0.00 0.00 31 1015.0
20260905220103 99 117 13.0 17.0 0.00 0.00 0.00 31 1015.1
20260905220004 99 121 11.0 17.0 0.00 0.00 0.00 31 1015.1
20260905215903 99 128 10.0 17.0 0.00 0.00 0.00 31 1015.1
20260905215802 99 138 10.0 17.0 0.00 0.00 0.00 31 1015.1
20260905215702 99 128 8.0 17.0 0.00 0.00 0.00 31 1015.1
20260905215503 99 108 10.0 18.0 0.00 0.00 0.00 31 1015.1
20260905215402 99 142 10.0 18.0 0.00 0.00 0.00 31 1015.1
20260905215306 99 128 17.0 18.0 0.00 0.00 0.00 31 1015.1
20260905215204 99 105 6.0 18.0 0.00 0.00 0.00 31 1015.1
20260905215103 99 66 3.0 18.0 0.00 0.00 0.00 31 1015.1
20260905214802 99 132 12.0 21.0 0.00 0.00 0.00 31 1015.2
20260905214702 99 135 10.0 21.0 0.00 0.00 0.00 31 1015.3
20260905214603 99 136 17.0 21.0 0.00 0.00 0.00 31 1015.2
20260905214503 99 116 12.0 21.0 0.00 0.00 0.00 31 1015.3
20260905214402 99 123 16.0 21.0 0.00 0.00 0.00 31 1015.3
20260905214302 99 144 9.0 21.0 0.00 0.00 0.00 31 1015.3
20260905214202 100 152 13.0 21.0 0.00 0.00 0.00 31 1015.3
20260905214102 100 153 18.0 21.0 0.00 0.00 0.00 31 1015.3
20260905214004 100 156 19.0 19.0 0.00 0.00 0.00 31 1015.3
20260905213904 100 126 9.0 19.0 0.00 0.00 0.00 31 1015.2
20260905213704 100 181 7.0 16.0 0.00 0.00 0.00 31 1015.3
20260905213603 100 206 8.0 16.0 0.00 0.00 0.00 31 1015.3
20260905213405 100 181 10.0 13.0 0.00 0.00 0.00 31 1015.4
20260905213202 100 199 9.0 13.0 0.00 0.00 0.00 31 1015.4
20260905212902 100 187 9.0 15.0 0.00 0.00 0.00 31 1015.4
20260905212804 100 161 9.0 16.0 0.00 0.00 0.00 31 1015.5
20260905212704 100 204 7.0 16.0 0.00 0.00 0.00 32 1015.5
20260905212604 100 146 12.0 16.0 0.00 0.00 0.00 31 1015.4
20260905212503 99 162 10.0 16.0 0.00 0.00 0.00 31 1015.5
20260905212306 99 140 13.0 16.0 0.00 0.00 0.00 31 1015.5